Time,TemperatureF,DewpointF,PressureIn,WindDirection,WindDirectionDegrees,WindSpeedMPH,WindSpeedGustMPH,Humidity,HourlyPrecipIn,Conditions,Clouds,dailyrainin,SoftwareType,DateUTC
2013-11-03 00:00:00,40.3,39.0,30.00,North,351,0.0,0.0,95,0.06,,---,0.00,VWS V14.01,2013-11-03 05:00:00,
2013-11-03 00:01:00,40.3,39.0,30.00,North,351,1.0,1.0,95,0.06,,---,0.00,VWS V14.01,2013-11-03 05:01:00,
2013-11-03 00:02:00,40.3,39.0,30.00,North,351,0.0,1.0,95,0.06,,---,0.00,VWS V14.01,2013-11-03 05:02:00,
2013-11-03 00:04:00,40.3,39.0,30.00,NNW,340,2.0,2.0,95,0.06,,---,0.00,VWS V14.01,2013-11-03 05:04:00,
2013-11-03 00:05:00,40.3,39.0,30.00,NNW,337,1.0,1.0,95,0.07,,---,0.01,VWS V14.01,2013-11-03 05:05:00,
2013-11-03 00:08:00,40.3,39.0,30.00,NNW,337,0.0,0.0,95,0.08,,---,0.02,VWS V14.01,2013-11-03 05:08:00,
2013-11-03 00:09:00,40.3,39.0,30.00,NNW,337,1.0,2.0,95,0.08,,---,0.02,VWS V14.01,2013-11-03 05:09:00,
2013-11-03 00:10:00,40.3,39.0,30.00,WNW,288,0.0,1.0,95,0.08,,---,0.02,VWS V14.01,2013-11-03 05:10:00,
2013-11-03 00:11:00,40.2,38.9,30.00,WNW,288,0.0,0.0,95,0.09,,---,0.03,VWS V14.01,2013-11-03 05:11:00,
2013-11-03 00:13:00,40.2,38.9,30.00,WNW,288,0.0,0.0,95,0.09,,---,0.03,VWS V14.01,2013-11-03 05:13:00,
2013-11-03 00:15:00,40.2,38.9,30.01,WNW,288,0.0,0.0,95,0.09,,---,0.03,VWS V14.01,2013-11-03 05:15:00,
2013-11-03 00:17:00,40.2,38.9,30.01,WNW,288,0.0,0.0,95,0.09,,---,0.03,VWS V14.01,2013-11-03 05:17:00,
2013-11-03 00:19:00,40.2,38.9,30.01,WNW,288,0.0,0.0,95,0.09,,---,0.03,VWS V14.01,2013-11-03 05:19:00,
2013-11-03 00:20:00,40.1,38.8,30.01,WNW,288,0.0,0.0,95,0.09,,---,0.03,VWS V14.01,2013-11-03 05:20:00,
2013-11-03 00:21:00,40.1,38.8,30.01,WNW,288,0.0,1.0,95,0.09,,---,0.03,VWS V14.01,2013-11-03 05:21:00,
2013-11-03 00:24:00,40.1,38.8,30.01,WNW,300,1.0,2.0,95,0.10,,---,0.04,VWS V14.01,2013-11-03 05:24:00,
2013-11-03 00:25:00,40.1,38.8,30.01,WNW,300,0.0,1.0,95,0.10,,---,0.04,VWS V14.01,2013-11-03 05:25:00,
2013-11-03 00:26:00,40.1,38.8,30.01,WNW,300,0.0,0.0,95,0.10,,---,0.04,VWS V14.01,2013-11-03 05:26:00,
2013-11-03 00:29:00,39.9,38.6,30.01,WNW,300,0.0,0.0,95,0.10,,---,0.04,VWS V14.01,2013-11-03 05:29:00,
2013-11-03 00:30:00,39.9,38.6,30.01,WNW,300,0.0,0.0,95,0.10,,---,0.04,VWS V14.01,2013-11-03 05:30:00,
2013-11-03 00:31:00,39.9,38.6,30.01,WNW,300,0.0,0.0,95,0.10,,---,0.04,VWS V14.01,2013-11-03 05:31:00,
2013-11-03 00:34:00,39.9,38.6,30.01,WNW,300,0.0,0.0,95,0.09,,---,0.04,VWS V14.01,2013-11-03 05:34:00,
2013-11-03 00:36:00,39.9,38.6,30.01,WNW,300,0.0,0.0,95,0.09,,---,0.04,VWS V14.01,2013-11-03 05:36:00,
2013-11-03 00:39:00,39.9,38.6,30.01,WNW,300,0.0,0.0,95,0.09,,---,0.04,VWS V14.01,2013-11-03 05:39:00,
2013-11-03 00:41:00,39.8,38.5,30.01,WNW,300,0.0,0.0,95,0.09,,---,0.04,VWS V14.01,2013-11-03 05:41:00,
2013-11-03 00:42:00,39.8,38.5,30.01,WNW,300,0.0,0.0,95,0.09,,---,0.04,VWS V14.01,2013-11-03 05:42:00,
2013-11-03 00:45:00,39.8,38.5,30.01,WNW,300,0.0,0.0,95,0.08,,---,0.04,VWS V14.01,2013-11-03 05:45:00,
2013-11-03 00:46:00,39.8,38.5,30.01,WNW,300,0.0,0.0,95,0.08,,---,0.04,VWS V14.01,2013-11-03 05:46:00,
2013-11-03 00:47:00,39.8,38.5,30.01,WNW,300,0.0,0.0,95,0.07,,---,0.04,VWS V14.01,2013-11-03 05:47:00,
2013-11-03 00:48:00,39.8,38.5,30.01,WNW,300,0.0,0.0,95,0.07,,---,0.04,VWS V14.01,2013-11-03 05:48:00,
2013-11-03 00:50:00,39.8,38.5,30.01,WNW,300,0.0,0.0,95,0.06,,---,0.04,VWS V14.01,2013-11-03 05:50:00,
2013-11-03 00:51:00,39.8,38.5,30.01,WNW,300,0.0,0.0,95,0.06,,---,0.04,VWS V14.01,2013-11-03 05:51:00,
2013-11-03 00:52:00,39.8,38.5,30.01,WNW,300,0.0,0.0,95,0.06,,---,0.04,VWS V14.01,2013-11-03 05:52:00,
2013-11-03 00:53:00,39.6,38.3,30.01,WNW,300,0.0,0.0,95,0.05,,---,0.04,VWS V14.01,2013-11-03 05:53:00,
2013-11-03 00:54:00,39.6,38.3,30.01,WNW,300,0.0,0.0,95,0.05,,---,0.04,VWS V14.01,2013-11-03 05:54:00,
2013-11-03 00:56:00,39.6,38.3,30.01,WNW,300,0.0,0.0,95,0.05,,---,0.04,VWS V14.01,2013-11-03 05:56:00,
2013-11-03 00:58:00,39.5,38.2,30.01,WNW,300,0.0,0.0,95,0.05,,---,0.04,VWS V14.01,2013-11-03 05:58:00,
2013-11-03 00:59:00,39.5,38.2,30.02,WNW,300,0.0,0.0,95,0.04,,---,0.04,VWS V14.01,2013-11-03 05:59:00,
2013-11-03 01:00:00,39.5,38.2,30.02,WNW,300,0.0,0.0,95,0.04,,---,0.04,VWS V14.01,2013-11-03 06:00:00,
2013-11-03 01:01:00,39.3,38.0,30.02,WNW,300,0.0,0.0,95,0.04,,---,0.04,VWS V14.01,2013-11-03 06:01:00,
2013-11-03 01:02:00,39.3,38.0,30.02,WNW,300,0.0,0.0,95,0.04,,---,0.04,VWS V14.01,2013-11-03 06:02:00,
2013-11-03 01:04:00,39.3,38.0,30.02,WNW,300,0.0,0.0,95,0.04,,---,0.04,VWS V14.01,2013-11-03 06:04:00,
2013-11-03 01:05:00,39.3,38.0,30.02,WNW,300,0.0,0.0,95,0.03,,---,0.04,VWS V14.01,2013-11-03 06:05:00,
2013-11-03 01:06:00,39.3,38.3,30.02,WNW,300,0.0,0.0,96,0.03,,---,0.04,VWS V14.01,2013-11-03 06:06:00,
2013-11-03 01:07:00,39.2,38.2,30.02,WNW,300,0.0,0.0,96,0.03,,---,0.04,VWS V14.01,2013-11-03 06:07:00,
2013-11-03 01:09:00,39.2,38.2,30.02,WNW,300,0.0,0.0,96,0.02,,---,0.04,VWS V14.01,2013-11-03 06:09:00,
2013-11-03 01:10:00,39.2,38.2,30.02,WNW,300,0.0,0.0,96,0.02,,---,0.04,VWS V14.01,2013-11-03 06:10:00,
2013-11-03 01:11:00,39.2,38.2,30.02,WNW,300,0.0,0.0,96,0.02,,---,0.04,VWS V14.01,2013-11-03 06:11:00,
2013-11-03 01:14:00,39.2,38.2,30.02,WNW,300,0.0,0.0,96,0.01,,---,0.04,VWS V14.01,2013-11-03 06:14:00,
2013-11-03 01:15:00,39.3,38.3,30.02,WNW,300,0.0,0.0,96,0.01,,---,0.04,VWS V14.01,2013-11-03 06:15:00,
2013-11-03 01:16:00,39.3,38.3,30.02,WNW,300,0.0,0.0,96,0.01,,---,0.04,VWS V14.01,2013-11-03 06:16:00,
2013-11-03 01:18:00,39.3,38.3,30.02,WNW,300,0.0,0.0,96,0.01,,---,0.04,VWS V14.01,2013-11-03 06:18:00,
2013-11-03 01:19:00,39.3,38.3,30.02,WNW,300,0.0,0.0,96,0.01,,---,0.04,VWS V14.01,2013-11-03 06:19:00,
2013-11-03 01:20:00,39.3,38.3,30.02,WNW,300,0.0,0.0,96,0.01,,---,0.04,VWS V14.01,2013-11-03 06:20:00,
2013-11-03 01:22:00,39.3,38.3,30.02,WNW,300,0.0,0.0,96,0.01,,---,0.04,VWS V14.01,2013-11-03 06:22:00,
2013-11-03 01:23:00,39.3,38.3,30.02,WNW,300,0.0,0.0,96,0.01,,---,0.04,VWS V14.01,2013-11-03 06:23:00,
2013-11-03 01:24:00,39.3,38.3,30.02,WNW,300,0.0,0.0,96,0.00,,---,0.04,VWS V14.01,2013-11-03 06:24:00,
2013-11-03 01:25:00,39.3,38.3,30.02,WNW,300,0.0,0.0,96,0.00,,---,0.04,VWS V14.01,2013-11-03 06:25:00,
2013-11-03 01:26:00,39.3,38.3,30.02,WNW,300,0.0,0.0,96,0.00,,---,0.04,VWS V14.01,2013-11-03 06:26:00,
2013-11-03 01:27:00,39.3,38.3,30.02,WNW,300,0.0,0.0,96,0.00,,---,0.04,VWS V14.01,2013-11-03 06:27:00,
2013-11-03 01:28:00,39.3,38.3,30.02,WNW,300,0.0,0.0,96,0.00,,---,0.04,VWS V14.01,2013-11-03 06:28:00,
2013-11-03 01:30:00,39.3,38.3,30.03,WNW,300,0.0,0.0,96,0.00,,---,0.04,VWS V14.01,2013-11-03 06:30:00,
2013-11-03 01:32:00,39.3,38.3,30.03,WNW,300,0.0,0.0,96,0.00,,---,0.04,VWS V14.01,2013-11-03 06:32:00,
2013-11-03 01:33:00,39.5,38.5,30.03,WNW,300,0.0,0.0,96,0.00,,---,0.04,VWS V14.01,2013-11-03 06:33:00,
2013-11-03 01:34:00,39.5,38.5,30.03,WNW,300,0.0,0.0,96,0.00,,---,0.04,VWS V14.01,2013-11-03 06:34:00,
2013-11-03 01:35:00,39.5,38.5,30.03,WNW,300,0.0,0.0,96,0.00,,---,0.04,VWS V14.01,2013-11-03 06:35:00,
2013-11-03 01:39:00,39.5,38.5,30.03,WNW,300,0.0,0.0,96,0.00,,---,0.04,VWS V14.01,2013-11-03 06:39:00,
2013-11-03 01:40:00,39.6,38.6,30.03,WNW,300,0.0,0.0,96,0.00,,---,0.04,VWS V14.01,2013-11-03 06:40:00,
2013-11-03 01:41:00,39.6,38.6,30.03,WNW,300,0.0,0.0,96,0.00,,---,0.04,VWS V14.01,2013-11-03 06:41:00,
2013-11-03 01:44:00,39.8,39.0,30.03,WNW,300,0.0,0.0,97,0.00,,---,0.04,VWS V14.01,2013-11-03 06:44:00,
2013-11-03 01:47:00,39.9,39.1,30.03,WNW,300,0.0,0.0,97,0.00,,---,0.04,VWS V14.01,2013-11-03 06:47:00,
2013-11-03 01:48:00,39.9,39.1,30.03,WNW,300,0.0,0.0,97,0.00,,---,0.04,VWS V14.01,2013-11-03 06:48:00,
2013-11-03 01:50:00,40.1,39.3,30.03,WNW,300,0.0,0.0,97,0.00,,---,0.04,VWS V14.01,2013-11-03 06:50:00,
2013-11-03 01:53:00,40.2,39.4,30.03,WNW,300,0.0,0.0,97,0.00,,---,0.04,VWS V14.01,2013-11-03 06:53:00,
2013-11-03 01:54:00,40.2,39.4,30.03,NE,40,0.0,2.0,97,0.00,,---,0.04,VWS V14.01,2013-11-03 06:54:00,
2013-11-03 01:55:00,40.3,39.5,30.03,NE,40,0.0,0.0,97,0.00,,---,0.04,VWS V14.01,2013-11-03 06:55:00,
2013-11-03 01:56:00,40.3,39.5,30.03,NE,40,0.0,0.0,97,0.00,,---,0.04,VWS V14.01,2013-11-03 06:56:00,
2013-11-03 01:58:00,40.5,39.7,30.03,NE,40,0.0,1.0,97,0.00,,---,0.04,VWS V14.01,2013-11-03 06:58:00,
2013-11-03 01:59:00,40.5,39.7,30.03,West,275,0.0,3.0,97,0.00,,---,0.04,VWS V14.01,2013-11-03 06:59:00,
2013-11-03 01:00:00,40.5,39.7,30.03,West,275,0.0,1.0,97,0.01,,---,0.05,VWS V14.01,2013-11-03 07:00:00,
2013-11-03 01:01:00,40.5,39.7,30.03,West,266,2.0,2.0,97,0.01,,---,0.05,VWS V14.01,2013-11-03 07:01:00,
2013-11-03 01:03:00,40.5,39.7,30.03,West,266,1.0,1.0,97,0.01,,---,0.05,VWS V14.01,2013-11-03 07:03:00,
2013-11-03 01:04:00,40.5,39.7,30.03,West,266,0.0,1.0,97,0.01,,---,0.05,VWS V14.01,2013-11-03 07:04:00,
2013-11-03 01:05:00,40.5,39.7,30.03,West,266,1.0,1.0,97,0.01,,---,0.05,VWS V14.01,2013-11-03 07:05:00,
2013-11-03 01:06:00,40.5,39.7,30.03,West,269,1.0,3.0,97,0.01,,---,0.05,VWS V14.01,2013-11-03 07:06:00,
2013-11-03 01:09:00,40.5,39.7,30.03,NNW,335,1.0,2.0,97,0.02,,---,0.06,VWS V14.01,2013-11-03 07:09:00,
2013-11-03 01:10:00,40.5,39.7,30.03,NNW,335,0.0,0.0,97,0.02,,---,0.06,VWS V14.01,2013-11-03 07:10:00,
2013-11-03 01:11:00,40.5,39.7,30.03,NNW,335,0.0,0.0,97,0.02,,---,0.06,VWS V14.01,2013-11-03 07:11:00,
2013-11-03 01:12:00,40.5,39.7,30.03,NNW,335,0.0,0.0,97,0.02,,---,0.06,VWS V14.01,2013-11-03 07:12:00,
2013-11-03 01:13:00,40.5,39.7,30.03,NNW,335,0.0,0.0,97,0.02,,---,0.06,VWS V14.01,2013-11-03 07:13:00,
2013-11-03 01:16:00,40.5,39.7,30.04,NNW,335,0.0,0.0,97,0.03,,---,0.07,VWS V14.01,2013-11-03 07:16:00,
2013-11-03 01:17:00,40.5,39.7,30.04,NNW,335,0.0,0.0,97,0.03,,---,0.07,VWS V14.01,2013-11-03 07:17:00,
2013-11-03 01:19:00,40.5,39.7,30.04,NNW,335,0.0,0.0,97,0.03,,---,0.07,VWS V14.01,2013-11-03 07:19:00,
2013-11-03 01:20:00,40.5,39.7,30.04,NNW,335,0.0,0.0,97,0.04,,---,0.08,VWS V14.01,2013-11-03 07:20:00,
2013-11-03 01:21:00,40.5,39.7,30.04,NNW,335,0.0,0.0,97,0.04,,---,0.08,VWS V14.01,2013-11-03 07:21:00,
2013-11-03 01:23:00,40.5,39.7,30.04,NNW,335,0.0,0.0,97,0.04,,---,0.08,VWS V14.01,2013-11-03 07:23:00,
2013-11-03 01:26:00,40.5,39.7,30.04,NNW,335,0.0,0.0,97,0.04,,---,0.08,VWS V14.01,2013-11-03 07:26:00,
2013-11-03 01:27:00,40.5,39.7,30.04,NNW,335,0.0,0.0,97,0.04,,---,0.08,VWS V14.01,2013-11-03 07:27:00,
2013-11-03 01:29:00,40.5,39.7,30.05,NNW,335,0.0,0.0,97,0.04,,---,0.08,VWS V14.01,2013-11-03 07:29:00,
2013-11-03 01:31:00,40.5,39.7,30.05,NNW,335,0.0,0.0,97,0.04,,---,0.08,VWS V14.01,2013-11-03 07:31:00,
2013-11-03 01:32:00,40.5,39.7,30.05,NNW,335,0.0,0.0,97,0.04,,---,0.08,VWS V14.01,2013-11-03 07:32:00,
2013-11-03 01:33:00,40.5,39.7,30.05,NNW,335,0.0,0.0,97,0.04,,---,0.08,VWS V14.01,2013-11-03 07:33:00,
2013-11-03 01:34:00,40.5,39.7,30.05,NNW,335,0.0,0.0,97,0.04,,---,0.08,VWS V14.01,2013-11-03 07:34:00,
2013-11-03 01:35:00,40.3,39.5,30.05,NNW,335,0.0,0.0,97,0.04,,---,0.08,VWS V14.01,2013-11-03 07:35:00,
2013-11-03 01:37:00,40.3,39.5,30.05,NNW,335,0.0,0.0,97,0.04,,---,0.08,VWS V14.01,2013-11-03 07:37:00,
2013-11-03 01:40:00,40.3,39.5,30.05,NNW,335,0.0,0.0,97,0.04,,---,0.08,VWS V14.01,2013-11-03 07:40:00,
2013-11-03 01:41:00,40.3,39.5,30.05,NNW,335,0.0,0.0,97,0.04,,---,0.08,VWS V14.01,2013-11-03 07:41:00,
2013-11-03 01:44:00,40.3,39.5,30.05,NNW,335,0.0,0.0,97,0.04,,---,0.08,VWS V14.01,2013-11-03 07:44:00,
2013-11-03 01:45:00,40.3,39.5,30.05,NNW,335,0.0,0.0,97,0.04,,---,0.08,VWS V14.01,2013-11-03 07:45:00,
2013-11-03 01:46:00,40.3,39.5,30.05,NNW,335,0.0,0.0,97,0.04,,---,0.08,VWS V14.01,2013-11-03 07:46:00,
2013-11-03 01:47:00,40.3,39.5,30.05,NNW,335,0.0,0.0,97,0.04,,---,0.08,VWS V14.01,2013-11-03 07:47:00,
2013-11-03 01:48:00,40.3,39.5,30.05,NNW,335,0.0,0.0,97,0.04,,---,0.08,VWS V14.01,2013-11-03 07:48:00,
2013-11-03 01:51:00,40.5,39.7,30.05,NNW,335,0.0,0.0,97,0.04,,---,0.08,VWS V14.01,2013-11-03 07:51:00,
2013-11-03 01:52:00,40.5,39.7,30.05,NNW,335,0.0,0.0,97,0.05,,---,0.09,VWS V14.01,2013-11-03 07:52:00,
2013-11-03 01:55:00,40.5,39.7,30.05,NNW,335,0.0,0.0,97,0.05,,---,0.09,VWS V14.01,2013-11-03 07:55:00,
2013-11-03 01:56:00,40.5,39.7,30.05,NNW,335,0.0,0.0,97,0.05,,---,0.09,VWS V14.01,2013-11-03 07:56:00,
2013-11-03 01:57:00,40.5,39.7,30.05,NNW,335,0.0,1.0,97,0.06,,---,0.10,VWS V14.01,2013-11-03 07:57:00,
2013-11-03 01:58:00,40.5,39.7,30.05,NNW,335,0.0,0.0,97,0.06,,---,0.10,VWS V14.01,2013-11-03 07:58:00,
2013-11-03 02:00:00,40.5,39.7,30.05,NNW,335,0.0,0.0,97,0.06,,---,0.10,VWS V14.01,2013-11-03 08:00:00,
2013-11-03 02:03:00,40.5,39.7,30.05,NNW,335,0.0,0.0,97,0.05,,---,0.10,VWS V14.01,2013-11-03 08:03:00,
2013-11-03 02:04:00,40.5,39.7,30.05,NNW,335,0.0,0.0,97,0.06,,---,0.11,VWS V14.01,2013-11-03 08:04:00,
2013-11-03 02:05:00,40.5,39.7,30.05,NNW,335,0.0,0.0,97,0.06,,---,0.11,VWS V14.01,2013-11-03 08:05:00,
2013-11-03 02:06:00,40.5,39.7,30.05,NNW,335,0.0,0.0,97,0.06,,---,0.11,VWS V14.01,2013-11-03 08:06:00,
2013-11-03 02:08:00,40.6,39.8,30.05,NNW,335,0.0,0.0,97,0.07,,---,0.12,VWS V14.01,2013-11-03 08:08:00,
2013-11-03 02:11:00,40.6,39.8,30.05,NNW,335,0.0,0.0,97,0.06,,---,0.12,VWS V14.01,2013-11-03 08:11:00,
2013-11-03 02:12:00,40.6,39.8,30.05,NNW,335,0.0,0.0,97,0.06,,---,0.12,VWS V14.01,2013-11-03 08:12:00,
2013-11-03 02:14:00,40.6,39.8,30.06,NNW,335,0.0,0.0,97,0.06,,---,0.12,VWS V14.01,2013-11-03 08:14:00,
2013-11-03 02:15:00,40.6,39.8,30.06,NNW,335,0.0,0.0,97,0.05,,---,0.12,VWS V14.01,2013-11-03 08:15:00,
2013-11-03 02:16:00,40.6,39.8,30.06,NNW,335,0.0,0.0,97,0.05,,---,0.12,VWS V14.01,2013-11-03 08:16:00,
2013-11-03 02:17:00,40.6,39.8,30.06,NNW,335,0.0,0.0,97,0.05,,---,0.12,VWS V14.01,2013-11-03 08:17:00,
2013-11-03 02:19:00,40.6,39.8,30.06,NNW,335,0.0,0.0,97,0.05,,---,0.12,VWS V14.01,2013-11-03 08:19:00,
2013-11-03 02:21:00,40.6,39.8,30.06,NNW,335,0.0,0.0,97,0.05,,---,0.13,VWS V14.01,2013-11-03 08:21:00,
2013-11-03 02:22:00,40.6,39.8,30.06,NNW,335,0.0,0.0,97,0.05,,---,0.13,VWS V14.01,2013-11-03 08:22:00,
2013-11-03 02:24:00,40.6,39.8,30.06,NNW,335,0.0,0.0,97,0.05,,---,0.13,VWS V14.01,2013-11-03 08:24:00,
2013-11-03 02:25:00,40.6,39.8,30.06,NNW,335,0.0,0.0,97,0.05,,---,0.13,VWS V14.01,2013-11-03 08:25:00,
2013-11-03 02:27:00,40.6,39.8,30.06,NNW,335,0.0,0.0,97,0.05,,---,0.13,VWS V14.01,2013-11-03 08:27:00,
2013-11-03 02:28:00,40.6,39.8,30.06,NNW,335,0.0,0.0,97,0.06,,---,0.14,VWS V14.01,2013-11-03 08:28:00,
2013-11-03 02:32:00,40.8,40.0,30.06,NNW,335,0.0,0.0,97,0.06,,---,0.14,VWS V14.01,2013-11-03 08:32:00,
2013-11-03 02:33:00,40.8,40.3,30.06,NNW,335,0.0,0.0,98,0.06,,---,0.14,VWS V14.01,2013-11-03 08:33:00,
2013-11-03 02:34:00,40.6,40.1,30.06,NNW,335,0.0,0.0,98,0.06,,---,0.14,VWS V14.01,2013-11-03 08:34:00,
2013-11-03 02:36:00,40.8,40.0,30.06,NNW,335,0.0,0.0,97,0.06,,---,0.14,VWS V14.01,2013-11-03 08:36:00,
2013-11-03 02:37:00,40.8,40.3,30.06,NNW,335,0.0,0.0,98,0.06,,---,0.14,VWS V14.01,2013-11-03 08:37:00,
2013-11-03 02:38:00,40.8,40.3,30.06,NNW,335,0.0,0.0,98,0.06,,---,0.14,VWS V14.01,2013-11-03 08:38:00,
2013-11-03 02:40:00,40.8,40.3,30.06,NNW,335,0.0,0.0,98,0.06,,---,0.14,VWS V14.01,2013-11-03 08:40:00,
2013-11-03 02:41:00,40.8,40.3,30.06,NNW,335,0.0,0.0,98,0.06,,---,0.14,VWS V14.01,2013-11-03 08:41:00,
2013-11-03 02:42:00,40.8,40.3,30.06,NNW,335,0.0,0.0,98,0.06,,---,0.14,VWS V14.01,2013-11-03 08:42:00,
2013-11-03 02:43:00,40.8,40.3,30.06,NNW,335,0.0,0.0,98,0.06,,---,0.14,VWS V14.01,2013-11-03 08:43:00,
2013-11-03 02:44:00,40.6,40.1,30.07,NNW,335,0.0,0.0,98,0.06,,---,0.14,VWS V14.01,2013-11-03 08:44:00,
2013-11-03 02:45:00,40.6,40.1,30.07,NNW,335,0.0,0.0,98,0.06,,---,0.14,VWS V14.01,2013-11-03 08:45:00,
2013-11-03 02:47:00,40.8,40.3,30.07,NNW,335,0.0,0.0,98,0.06,,---,0.14,VWS V14.01,2013-11-03 08:47:00,
2013-11-03 02:48:00,40.8,40.3,30.07,NNW,335,0.0,0.0,98,0.06,,---,0.14,VWS V14.01,2013-11-03 08:48:00,
2013-11-03 02:49:00,40.8,40.3,30.07,NNW,335,0.0,0.0,98,0.06,,---,0.14,VWS V14.01,2013-11-03 08:49:00,
2013-11-03 02:50:00,40.8,40.3,30.07,NNW,335,0.0,0.0,98,0.06,,---,0.14,VWS V14.01,2013-11-03 08:50:00,
2013-11-03 02:54:00,40.8,40.3,30.07,NNW,335,0.0,0.0,98,0.05,,---,0.14,VWS V14.01,2013-11-03 08:54:00,
2013-11-03 02:55:00,40.8,40.3,30.07,NNW,335,0.0,0.0,98,0.05,,---,0.14,VWS V14.01,2013-11-03 08:55:00,
2013-11-03 02:56:00,40.8,40.3,30.07,NNW,330,0.0,1.0,98,0.05,,---,0.14,VWS V14.01,2013-11-03 08:56:00,
2013-11-03 02:57:00,40.8,40.3,30.07,NNW,330,0.0,0.0,98,0.05,,---,0.14,VWS V14.01,2013-11-03 08:57:00,
2013-11-03 02:59:00,40.8,40.3,30.08,NNW,330,0.0,0.0,98,0.04,,---,0.14,VWS V14.01,2013-11-03 08:59:00,
2013-11-03 03:01:00,40.8,40.3,30.08,WSW,238,0.0,1.0,98,0.04,,---,0.14,VWS V14.01,2013-11-03 09:01:00,
2013-11-03 03:02:00,40.8,40.3,30.08,WSW,238,0.0,0.0,98,0.04,,---,0.14,VWS V14.01,2013-11-03 09:02:00,
2013-11-03 03:04:00,40.8,40.3,30.08,WSW,238,0.0,0.0,98,0.04,,---,0.14,VWS V14.01,2013-11-03 09:04:00,
2013-11-03 03:05:00,40.6,40.1,30.08,WSW,238,0.0,0.0,98,0.03,,---,0.14,VWS V14.01,2013-11-03 09:05:00,
2013-11-03 03:07:00,40.6,40.1,30.08,WSW,238,0.0,0.0,98,0.03,,---,0.14,VWS V14.01,2013-11-03 09:07:00,
2013-11-03 03:08:00,40.6,40.1,30.08,WSW,238,0.0,0.0,98,0.04,,---,0.15,VWS V14.01,2013-11-03 09:08:00,
2013-11-03 03:10:00,40.6,40.1,30.08,WSW,238,0.0,0.0,98,0.03,,---,0.15,VWS V14.01,2013-11-03 09:10:00,
2013-11-03 03:11:00,40.6,40.1,30.08,WSW,238,0.0,0.0,98,0.03,,---,0.15,VWS V14.01,2013-11-03 09:11:00,
2013-11-03 03:12:00,40.6,40.1,30.08,WSW,238,0.0,0.0,98,0.03,,---,0.15,VWS V14.01,2013-11-03 09:12:00,
2013-11-03 03:13:00,40.6,40.1,30.08,WSW,238,0.0,0.0,98,0.03,,---,0.15,VWS V14.01,2013-11-03 09:13:00,
2013-11-03 03:16:00,40.6,40.1,30.08,WSW,238,0.0,0.0,98,0.03,,---,0.15,VWS V14.01,2013-11-03 09:16:00,
2013-11-03 03:17:00,40.6,40.1,30.08,WSW,238,0.0,0.0,98,0.03,,---,0.15,VWS V14.01,2013-11-03 09:17:00,
2013-11-03 03:18:00,40.6,40.1,30.08,WSW,238,0.0,0.0,98,0.03,,---,0.15,VWS V14.01,2013-11-03 09:18:00,
2013-11-03 03:20:00,40.6,40.1,30.08,WSW,238,0.0,0.0,98,0.03,,---,0.15,VWS V14.01,2013-11-03 09:20:00,
2013-11-03 03:22:00,40.6,40.1,30.08,WSW,238,0.0,0.0,98,0.02,,---,0.15,VWS V14.01,2013-11-03 09:22:00,
2013-11-03 03:23:00,40.6,40.1,30.08,WSW,238,0.0,0.0,98,0.02,,---,0.15,VWS V14.01,2013-11-03 09:23:00,
2013-11-03 03:24:00,40.6,40.1,30.08,WSW,238,0.0,0.0,98,0.02,,---,0.15,VWS V14.01,2013-11-03 09:24:00,
2013-11-03 03:25:00,40.6,40.1,30.08,WSW,238,0.0,0.0,98,0.02,,---,0.15,VWS V14.01,2013-11-03 09:25:00,
2013-11-03 03:28:00,40.6,40.1,30.08,WSW,238,0.0,0.0,98,0.02,,---,0.15,VWS V14.01,2013-11-03 09:28:00,
2013-11-03 03:29:00,40.6,40.1,30.09,WSW,238,0.0,0.0,98,0.01,,---,0.15,VWS V14.01,2013-11-03 09:29:00,
2013-11-03 03:31:00,40.6,40.1,30.09,WSW,238,0.0,0.0,98,0.01,,---,0.15,VWS V14.01,2013-11-03 09:31:00,
2013-11-03 03:32:00,40.8,40.3,30.09,WSW,238,0.0,0.0,98,0.01,,---,0.15,VWS V14.01,2013-11-03 09:32:00,
2013-11-03 03:33:00,40.8,40.3,30.09,WSW,238,0.0,0.0,98,0.01,,---,0.15,VWS V14.01,2013-11-03 09:33:00,
2013-11-03 03:34:00,40.8,40.3,30.09,WSW,238,0.0,0.0,98,0.01,,---,0.15,VWS V14.01,2013-11-03 09:34:00,
2013-11-03 03:36:00,40.8,40.3,30.09,WSW,238,0.0,0.0,98,0.01,,---,0.15,VWS V14.01,2013-11-03 09:36:00,
2013-11-03 03:39:00,40.8,40.3,30.09,WSW,238,0.0,0.0,98,0.01,,---,0.15,VWS V14.01,2013-11-03 09:39:00,
2013-11-03 03:41:00,40.8,40.3,30.09,WSW,238,0.0,0.0,98,0.01,,---,0.15,VWS V14.01,2013-11-03 09:41:00,
2013-11-03 03:42:00,40.8,40.3,30.09,WSW,238,0.0,0.0,98,0.01,,---,0.15,VWS V14.01,2013-11-03 09:42:00,
2013-11-03 03:43:00,40.8,40.3,30.09,WSW,238,0.0,0.0,98,0.01,,---,0.15,VWS V14.01,2013-11-03 09:43:00,
2013-11-03 03:46:00,40.8,40.3,30.09,WSW,238,0.0,0.0,98,0.01,,---,0.15,VWS V14.01,2013-11-03 09:46:00,
2013-11-03 03:47:00,40.8,40.3,30.09,WSW,238,0.0,0.0,98,0.01,,---,0.15,VWS V14.01,2013-11-03 09:47:00,
2013-11-03 03:48:00,40.8,40.3,30.09,WSW,238,0.0,0.0,98,0.01,,---,0.15,VWS V14.01,2013-11-03 09:48:00,
2013-11-03 03:50:00,40.8,40.3,30.09,WSW,238,0.0,0.0,98,0.01,,---,0.15,VWS V14.01,2013-11-03 09:50:00,
2013-11-03 03:51:00,40.8,40.3,30.09,WSW,238,0.0,0.0,98,0.01,,---,0.15,VWS V14.01,2013-11-03 09:51:00,
2013-11-03 03:52:00,40.8,40.3,30.09,WSW,238,0.0,0.0,98,0.01,,---,0.15,VWS V14.01,2013-11-03 09:52:00,
2013-11-03 03:56:00,40.8,40.3,30.09,WSW,238,0.0,0.0,98,0.01,,---,0.15,VWS V14.01,2013-11-03 09:56:00,
2013-11-03 03:57:00,40.8,40.3,30.09,WSW,238,0.0,0.0,98,0.01,,---,0.15,VWS V14.01,2013-11-03 09:57:00,
2013-11-03 03:59:00,40.6,40.1,30.10,WSW,238,0.0,0.0,98,0.01,,---,0.15,VWS V14.01,2013-11-03 09:59:00,
2013-11-03 04:01:00,40.6,40.1,30.10,WSW,238,0.0,0.0,98,0.01,,---,0.15,VWS V14.01,2013-11-03 10:01:00,
2013-11-03 04:02:00,40.6,40.1,30.10,WSW,238,0.0,0.0,98,0.01,,---,0.15,VWS V14.01,2013-11-03 10:02:00,
2013-11-03 04:06:00,40.5,40.0,30.10,WSW,238,0.0,0.0,98,0.01,,---,0.15,VWS V14.01,2013-11-03 10:06:00,
2013-11-03 04:07:00,40.5,40.0,30.10,WSW,238,0.0,0.0,98,0.01,,---,0.15,VWS V14.01,2013-11-03 10:07:00,
2013-11-03 04:08:00,40.5,40.0,30.10,WSW,238,0.0,0.0,98,0.01,,---,0.15,VWS V14.01,2013-11-03 10:08:00,
2013-11-03 04:09:00,40.3,39.8,30.10,WSW,238,0.0,0.0,98,0.00,,---,0.15,VWS V14.01,2013-11-03 10:09:00,
2013-11-03 04:11:00,40.3,39.8,30.10,WSW,238,0.0,0.0,98,0.00,,---,0.15,VWS V14.01,2013-11-03 10:11:00,
2013-11-03 04:12:00,40.3,39.8,30.10,WSW,238,0.0,0.0,98,0.00,,---,0.15,VWS V14.01,2013-11-03 10:12:00,
2013-11-03 04:14:00,40.2,39.7,30.10,WSW,238,0.0,0.0,98,0.00,,---,0.15,VWS V14.01,2013-11-03 10:14:00,
2013-11-03 04:15:00,40.2,39.7,30.10,WSW,238,0.0,0.0,98,0.00,,---,0.15,VWS V14.01,2013-11-03 10:15:00,
2013-11-03 04:16:00,40.2,39.7,30.10,WSW,238,0.0,0.0,98,0.00,,---,0.15,VWS V14.01,2013-11-03 10:16:00,
2013-11-03 04:17:00,40.2,39.7,30.10,WSW,238,0.0,0.0,98,0.00,,---,0.15,VWS V14.01,2013-11-03 10:17:00,
2013-11-03 04:20:00,40.1,39.6,30.10,WSW,238,0.0,0.0,98,0.00,,---,0.15,VWS V14.01,2013-11-03 10:20:00,
2013-11-03 04:21:00,40.1,39.6,30.10,WSW,238,0.0,0.0,98,0.00,,---,0.15,VWS V14.01,2013-11-03 10:21:00,
2013-11-03 04:22:00,40.1,39.6,30.10,WSW,238,0.0,0.0,98,0.00,,---,0.15,VWS V14.01,2013-11-03 10:22:00,
2013-11-03 04:23:00,40.1,39.6,30.10,WSW,238,0.0,0.0,98,0.00,,---,0.15,VWS V14.01,2013-11-03 10:23:00,
2013-11-03 04:24:00,40.1,39.6,30.10,WSW,238,0.0,0.0,98,0.00,,---,0.15,VWS V14.01,2013-11-03 10:24:00,
2013-11-03 04:25:00,40.1,39.6,30.10,WSW,238,0.0,0.0,98,0.00,,---,0.15,VWS V14.01,2013-11-03 10:25:00,
2013-11-03 04:27:00,40.1,39.6,30.10,WSW,238,0.0,0.0,98,0.00,,---,0.15,VWS V14.01,2013-11-03 10:27:00,
2013-11-03 04:29:00,39.9,39.4,30.10,WSW,238,0.0,0.0,98,0.00,,---,0.15,VWS V14.01,2013-11-03 10:29:00,
2013-11-03 04:30:00,39.9,39.4,30.10,WSW,238,0.0,0.0,98,0.00,,---,0.15,VWS V14.01,2013-11-03 10:30:00,
2013-11-03 04:32:00,39.9,39.4,30.10,WSW,238,0.0,0.0,98,0.00,,---,0.15,VWS V14.01,2013-11-03 10:32:00,
2013-11-03 04:33:00,39.9,39.4,30.10,WSW,238,0.0,0.0,98,0.00,,---,0.15,VWS V14.01,2013-11-03 10:33:00,
2013-11-03 04:35:00,39.8,39.3,30.10,WSW,238,0.0,0.0,98,0.00,,---,0.15,VWS V14.01,2013-11-03 10:35:00,
2013-11-03 04:36:00,39.8,39.3,30.10,WSW,238,0.0,0.0,98,0.00,,---,0.15,VWS V14.01,2013-11-03 10:36:00,
2013-11-03 04:37:00,39.8,39.3,30.10,WSW,238,0.0,0.0,98,0.00,,---,0.15,VWS V14.01,2013-11-03 10:37:00,
2013-11-03 04:41:00,39.6,39.1,30.10,WSW,238,0.0,0.0,98,0.00,,---,0.15,VWS V14.01,2013-11-03 10:41:00,
2013-11-03 04:42:00,39.5,39.0,30.10,WSW,238,0.0,0.0,98,0.00,,---,0.15,VWS V14.01,2013-11-03 10:42:00,
2013-11-03 04:43:00,39.5,39.0,30.10,WSW,238,0.0,0.0,98,0.00,,---,0.15,VWS V14.01,2013-11-03 10:43:00,
2013-11-03 04:46:00,39.3,38.8,30.11,WSW,238,0.0,0.0,98,0.00,,---,0.15,VWS V14.01,2013-11-03 10:46:00,
2013-11-03 04:47:00,39.3,38.8,30.11,WSW,238,0.0,0.0,98,0.00,,---,0.15,VWS V14.01,2013-11-03 10:47:00,
2013-11-03 04:48:00,39.3,38.8,30.11,WSW,238,0.0,0.0,98,0.00,,---,0.15,VWS V14.01,2013-11-03 10:48:00,
2013-11-03 04:51:00,39.2,38.7,30.11,WSW,238,0.0,0.0,98,0.00,,---,0.15,VWS V14.01,2013-11-03 10:51:00,
2013-11-03 04:52:00,39.1,38.6,30.11,WSW,238,0.0,0.0,98,0.00,,---,0.15,VWS V14.01,2013-11-03 10:52:00,
2013-11-03 04:53:00,39.1,38.6,30.11,WSW,238,0.0,0.0,98,0.00,,---,0.15,VWS V14.01,2013-11-03 10:53:00,
2013-11-03 04:56:00,39.1,38.6,30.11,WSW,238,0.0,0.0,98,0.00,,---,0.15,VWS V14.01,2013-11-03 10:56:00,
2013-11-03 04:57:00,39.1,38.6,30.11,WSW,238,0.0,0.0,98,0.00,,---,0.15,VWS V14.01,2013-11-03 10:57:00,
2013-11-03 04:58:00,38.9,38.4,30.11,WSW,238,0.0,0.0,98,0.00,,---,0.15,VWS V14.01,2013-11-03 10:58:00,
2013-11-03 04:59:00,38.9,38.4,30.11,WSW,238,0.0,0.0,98,0.00,,---,0.15,VWS V14.01,2013-11-03 10:59:00,
2013-11-03 05:00:00,38.9,38.4,30.11,WSW,238,0.0,0.0,98,0.00,,---,0.15,VWS V14.01,2013-11-03 11:00:00,
2013-11-03 05:02:00,38.9,38.4,30.11,WSW,238,0.0,0.0,98,0.00,,---,0.15,VWS V14.01,2013-11-03 11:02:00,
2013-11-03 05:03:00,38.8,38.3,30.11,WSW,238,0.0,0.0,98,0.00,,---,0.15,VWS V14.01,2013-11-03 11:03:00,
2013-11-03 05:04:00,38.8,38.3,30.11,WSW,238,0.0,0.0,98,0.00,,---,0.15,VWS V14.01,2013-11-03 11:04:00,
2013-11-03 05:05:00,38.8,38.3,30.11,WSW,238,0.0,0.0,98,0.00,,---,0.15,VWS V14.01,2013-11-03 11:05:00,
2013-11-03 05:06:00,38.8,38.3,30.11,WSW,238,0.0,0.0,98,0.00,,---,0.15,VWS V14.01,2013-11-03 11:06:00,
2013-11-03 05:07:00,38.8,38.3,30.11,WSW,238,0.0,0.0,98,0.00,,---,0.15,VWS V14.01,2013-11-03 11:07:00,
2013-11-03 05:08:00,38.8,38.3,30.11,WSW,238,0.0,0.0,98,0.00,,---,0.15,VWS V14.01,2013-11-03 11:08:00,
2013-11-03 05:09:00,38.8,38.3,30.11,WSW,238,0.0,0.0,98,0.00,,---,0.15,VWS V14.01,2013-11-03 11:09:00,
2013-11-03 05:11:00,38.8,38.3,30.11,WSW,238,0.0,0.0,98,0.00,,---,0.15,VWS V14.01,2013-11-03 11:11:00,
2013-11-03 05:12:00,38.8,38.3,30.11,WSW,238,0.0,0.0,98,0.00,,---,0.15,VWS V14.01,2013-11-03 11:12:00,
2013-11-03 05:13:00,38.8,38.3,30.11,WSW,238,0.0,0.0,98,0.00,,---,0.15,VWS V14.01,2013-11-03 11:13:00,
2013-11-03 05:14:00,38.8,38.3,30.12,WSW,238,0.0,0.0,98,0.00,,---,0.15,VWS V14.01,2013-11-03 11:14:00,
2013-11-03 05:15:00,38.9,38.4,30.12,WSW,238,0.0,0.0,98,0.00,,---,0.15,VWS V14.01,2013-11-03 11:15:00,
2013-11-03 05:17:00,38.9,38.4,30.12,WSW,238,0.0,0.0,98,0.00,,---,0.15,VWS V14.01,2013-11-03 11:17:00,
2013-11-03 05:18:00,38.9,38.4,30.12,WSW,238,0.0,0.0,98,0.00,,---,0.15,VWS V14.01,2013-11-03 11:18:00,
2013-11-03 05:19:00,38.9,38.4,30.12,WSW,238,0.0,0.0,98,0.00,,---,0.15,VWS V14.01,2013-11-03 11:19:00,
2013-11-03 05:21:00,38.9,38.4,30.12,WSW,238,0.0,0.0,98,0.00,,---,0.15,VWS V14.01,2013-11-03 11:21:00,
2013-11-03 05:22:00,38.9,38.4,30.12,WSW,238,0.0,0.0,98,0.00,,---,0.15,VWS V14.01,2013-11-03 11:22:00,
2013-11-03 05:23:00,38.9,38.4,30.12,WSW,238,0.0,0.0,98,0.00,,---,0.15,VWS V14.01,2013-11-03 11:23:00,
2013-11-03 05:25:00,38.9,38.4,30.12,WSW,238,0.0,0.0,98,0.00,,---,0.15,VWS V14.01,2013-11-03 11:25:00,
2013-11-03 05:27:00,38.9,38.6,30.12,WSW,238,0.0,0.0,99,0.00,,---,0.15,VWS V14.01,2013-11-03 11:27:00,
2013-11-03 05:28:00,39.1,38.8,30.12,WSW,238,0.0,0.0,99,0.00,,---,0.15,VWS V14.01,2013-11-03 11:28:00,
2013-11-03 05:29:00,39.1,38.8,30.12,WSW,238,0.0,0.0,99,0.00,,---,0.15,VWS V14.01,2013-11-03 11:29:00,
2013-11-03 05:30:00,39.1,38.8,30.12,WSW,238,0.0,0.0,99,0.00,,---,0.15,VWS V14.01,2013-11-03 11:30:00,
2013-11-03 05:33:00,39.1,38.8,30.12,WSW,238,0.0,0.0,99,0.00,,---,0.15,VWS V14.01,2013-11-03 11:33:00,
2013-11-03 05:35:00,39.2,38.9,30.12,WSW,238,0.0,0.0,99,0.00,,---,0.15,VWS V14.01,2013-11-03 11:35:00,
2013-11-03 05:36:00,39.2,38.9,30.12,WSW,238,0.0,0.0,99,0.00,,---,0.15,VWS V14.01,2013-11-03 11:36:00,
2013-11-03 05:37:00,39.2,38.9,30.12,WSW,238,0.0,0.0,99,0.00,,---,0.15,VWS V14.01,2013-11-03 11:37:00,
2013-11-03 05:39:00,39.2,38.9,30.12,WSW,238,0.0,0.0,99,0.00,,---,0.15,VWS V14.01,2013-11-03 11:39:00,
2013-11-03 05:41:00,39.2,38.9,30.12,WSW,238,0.0,0.0,99,0.00,,---,0.15,VWS V14.01,2013-11-03 11:41:00,
2013-11-03 05:42:00,39.2,38.9,30.12,WSW,238,0.0,0.0,99,0.00,,---,0.15,VWS V14.01,2013-11-03 11:42:00,
2013-11-03 05:43:00,39.2,38.9,30.12,WSW,238,0.0,0.0,99,0.00,,---,0.15,VWS V14.01,2013-11-03 11:43:00,
2013-11-03 05:47:00,39.2,38.9,30.12,WSW,238,0.0,0.0,99,0.00,,---,0.15,VWS V14.01,2013-11-03 11:47:00,
2013-11-03 05:49:00,39.2,38.9,30.12,WSW,238,0.0,0.0,99,0.00,,---,0.15,VWS V14.01,2013-11-03 11:49:00,
2013-11-03 05:50:00,39.2,38.9,30.12,WSW,238,0.0,0.0,99,0.00,,---,0.15,VWS V14.01,2013-11-03 11:50:00,
2013-11-03 05:52:00,39.2,38.9,30.12,WSW,238,0.0,0.0,99,0.00,,---,0.15,VWS V14.01,2013-11-03 11:52:00,
2013-11-03 05:53:00,39.2,38.9,30.12,WSW,238,0.0,0.0,99,0.00,,---,0.15,VWS V14.01,2013-11-03 11:53:00,
2013-11-03 05:54:00,39.2,38.9,30.12,WSW,238,0.0,0.0,99,0.00,,---,0.15,VWS V14.01,2013-11-03 11:54:00,
2013-11-03 05:55:00,39.2,38.9,30.12,WSW,238,0.0,0.0,99,0.00,,---,0.15,VWS V14.01,2013-11-03 11:55:00,
2013-11-03 05:57:00,39.2,38.9,30.12,WSW,238,0.0,0.0,99,0.00,,---,0.15,VWS V14.01,2013-11-03 11:57:00,
2013-11-03 05:59:00,39.2,38.9,30.13,WSW,238,0.0,0.0,99,0.00,,---,0.15,VWS V14.01,2013-11-03 11:59:00,
2013-11-03 06:00:00,39.2,38.9,30.13,WSW,238,0.0,0.0,99,0.00,,---,0.15,VWS V14.01,2013-11-03 12:00:00,
2013-11-03 06:01:00,39.1,38.8,30.13,WSW,238,0.0,0.0,99,0.00,,---,0.15,VWS V14.01,2013-11-03 12:01:00,
2013-11-03 06:02:00,39.1,38.8,30.13,WSW,238,0.0,0.0,99,0.00,,---,0.15,VWS V14.01,2013-11-03 12:02:00,
2013-11-03 06:06:00,39.1,38.8,30.13,WSW,238,0.0,0.0,99,0.00,,---,0.15,VWS V14.01,2013-11-03 12:06:00,
2013-11-03 06:07:00,39.1,38.8,30.13,WSW,238,0.0,0.0,99,0.00,,---,0.15,VWS V14.01,2013-11-03 12:07:00,
2013-11-03 06:10:00,38.9,38.6,30.13,WSW,238,0.0,0.0,99,0.00,,---,0.15,VWS V14.01,2013-11-03 12:10:00,
2013-11-03 06:11:00,38.9,38.4,30.13,WSW,238,0.0,0.0,98,0.00,,---,0.15,VWS V14.01,2013-11-03 12:11:00,
2013-11-03 06:12:00,38.9,38.4,30.13,WSW,238,0.0,0.0,98,0.00,,---,0.15,VWS V14.01,2013-11-03 12:12:00,
2013-11-03 06:13:00,38.9,38.4,30.13,WSW,238,0.0,0.0,98,0.00,,---,0.15,VWS V14.01,2013-11-03 12:13:00,
2013-11-03 06:14:00,38.9,38.4,30.14,WSW,238,0.0,0.0,98,0.00,,---,0.15,VWS V14.01,2013-11-03 12:14:00,
2013-11-03 06:16:00,38.8,38.3,30.14,WSW,238,0.0,0.0,98,0.00,,---,0.15,VWS V14.01,2013-11-03 12:16:00,
2013-11-03 06:17:00,38.8,38.3,30.14,WSW,238,0.0,0.0,98,0.00,,---,0.15,VWS V14.01,2013-11-03 12:17:00,
2013-11-03 06:18:00,38.8,38.3,30.14,WSW,238,0.0,0.0,98,0.00,,---,0.15,VWS V14.01,2013-11-03 12:18:00,
2013-11-03 06:19:00,38.8,38.3,30.14,WSW,238,0.0,0.0,98,0.00,,---,0.15,VWS V14.01,2013-11-03 12:19:00,
2013-11-03 06:21:00,38.6,38.1,30.14,WSW,238,0.0,0.0,98,0.00,,---,0.15,VWS V14.01,2013-11-03 12:21:00,
2013-11-03 06:23:00,38.6,38.1,30.14,WSW,238,0.0,0.0,98,0.00,,---,0.15,VWS V14.01,2013-11-03 12:23:00,
2013-11-03 06:24:00,38.5,38.0,30.14,WSW,238,0.0,0.0,98,0.00,,---,0.15,VWS V14.01,2013-11-03 12:24:00,
2013-11-03 06:25:00,38.5,38.0,30.14,WSW,238,0.0,0.0,98,0.00,,---,0.15,VWS V14.01,2013-11-03 12:25:00,
2013-11-03 06:27:00,38.5,38.0,30.14,WSW,238,0.0,0.0,98,0.00,,---,0.15,VWS V14.01,2013-11-03 12:27:00,
2013-11-03 06:29:00,38.3,37.8,30.14,WSW,238,0.0,0.0,98,0.00,,---,0.15,VWS V14.01,2013-11-03 12:29:00,
2013-11-03 06:30:00,38.3,37.8,30.14,WSW,238,0.0,0.0,98,0.00,,---,0.15,VWS V14.01,2013-11-03 12:30:00,
2013-11-03 06:31:00,38.3,37.8,30.14,WSW,238,0.0,0.0,98,0.00,,---,0.15,VWS V14.01,2013-11-03 12:31:00,
2013-11-03 06:32:00,38.3,37.8,30.14,WSW,238,0.0,0.0,98,0.00,,---,0.15,VWS V14.01,2013-11-03 12:32:00,
2013-11-03 06:33:00,38.3,37.8,30.14,WSW,238,0.0,0.0,98,0.00,,---,0.15,VWS V14.01,2013-11-03 12:33:00,
2013-11-03 06:36:00,38.2,37.7,30.14,WSW,238,0.0,0.0,98,0.00,,---,0.15,VWS V14.01,2013-11-03 12:36:00,
2013-11-03 06:38:00,38.0,37.5,30.14,WSW,238,0.0,0.0,98,0.01,,---,0.16,VWS V14.01,2013-11-03 12:38:00,
2013-11-03 06:41:00,37.9,37.4,30.14,WSW,238,0.0,0.0,98,0.01,,---,0.16,VWS V14.01,2013-11-03 12:41:00,
2013-11-03 06:42:00,37.9,37.4,30.14,WSW,238,0.0,0.0,98,0.01,,---,0.16,VWS V14.01,2013-11-03 12:42:00,
2013-11-03 06:43:00,37.9,37.4,30.14,WSW,238,0.0,0.0,98,0.01,,---,0.16,VWS V14.01,2013-11-03 12:43:00,
2013-11-03 06:44:00,37.8,37.3,30.15,WSW,238,0.0,0.0,98,0.01,,---,0.16,VWS V14.01,2013-11-03 12:44:00,
2013-11-03 06:47:00,37.8,37.3,30.15,WSW,238,0.0,0.0,98,0.01,,---,0.16,VWS V14.01,2013-11-03 12:47:00,
2013-11-03 06:48:00,37.8,37.3,30.15,WSW,238,0.0,0.0,98,0.01,,---,0.16,VWS V14.01,2013-11-03 12:48:00,
2013-11-03 06:49:00,37.8,37.3,30.15,WSW,238,0.0,0.0,98,0.01,,---,0.16,VWS V14.01,2013-11-03 12:49:00,
2013-11-03 06:50:00,37.6,37.1,30.15,WSW,238,0.0,0.0,98,0.01,,---,0.16,VWS V14.01,2013-11-03 12:50:00,
2013-11-03 06:54:00,37.6,37.1,30.15,WSW,238,0.0,0.0,98,0.01,,---,0.16,VWS V14.01,2013-11-03 12:54:00,
2013-11-03 06:55:00,37.6,37.1,30.15,WSW,238,0.0,0.0,98,0.01,,---,0.16,VWS V14.01,2013-11-03 12:55:00,
2013-11-03 06:56:00,37.5,37.0,30.15,WSW,238,0.0,0.0,98,0.01,,---,0.16,VWS V14.01,2013-11-03 12:56:00,
2013-11-03 06:57:00,37.5,37.0,30.15,WSW,238,0.0,0.0,98,0.01,,---,0.16,VWS V14.01,2013-11-03 12:57:00,
2013-11-03 07:00:00,37.5,37.0,30.16,WSW,238,0.0,0.0,98,0.01,,---,0.16,VWS V14.01,2013-11-03 13:00:00,
2013-11-03 07:01:00,37.5,37.0,30.16,WSW,238,0.0,0.0,98,0.01,,---,0.16,VWS V14.01,2013-11-03 13:01:00,
2013-11-03 07:02:00,37.5,37.0,30.16,WSW,238,0.0,0.0,98,0.01,,---,0.16,VWS V14.01,2013-11-03 13:02:00,
2013-11-03 07:03:00,37.3,36.8,30.16,WSW,238,0.0,0.0,98,0.01,,---,0.16,VWS V14.01,2013-11-03 13:03:00,
2013-11-03 07:06:00,37.3,36.8,30.16,WSW,238,0.0,0.0,98,0.01,,---,0.16,VWS V14.01,2013-11-03 13:06:00,
2013-11-03 07:08:00,37.3,36.8,30.16,WSW,238,0.0,0.0,98,0.01,,---,0.16,VWS V14.01,2013-11-03 13:08:00,
2013-11-03 07:10:00,37.3,36.8,30.16,WSW,238,0.0,0.0,98,0.01,,---,0.16,VWS V14.01,2013-11-03 13:10:00,
2013-11-03 07:12:00,37.3,36.8,30.16,WSW,238,0.0,0.0,98,0.01,,---,0.16,VWS V14.01,2013-11-03 13:12:00,
2013-11-03 07:13:00,37.3,37.0,30.16,WSW,238,0.0,0.0,99,0.01,,---,0.16,VWS V14.01,2013-11-03 13:13:00,
2013-11-03 07:15:00,37.3,37.0,30.17,WSW,238,0.0,0.0,99,0.01,,---,0.16,VWS V14.01,2013-11-03 13:15:00,
2013-11-03 07:16:00,37.3,37.0,30.17,WSW,238,0.0,0.0,99,0.01,,---,0.16,VWS V14.01,2013-11-03 13:16:00,
2013-11-03 07:17:00,37.3,37.0,30.17,WSW,238,0.0,0.0,99,0.01,,---,0.16,VWS V14.01,2013-11-03 13:17:00,
2013-11-03 07:20:00,37.3,37.0,30.17,WSW,238,0.0,0.0,99,0.01,,---,0.16,VWS V14.01,2013-11-03 13:20:00,
2013-11-03 07:21:00,37.3,37.0,30.17,WSW,238,0.0,0.0,99,0.01,,---,0.16,VWS V14.01,2013-11-03 13:21:00,
2013-11-03 07:22:00,37.5,37.2,30.17,WSW,238,0.0,0.0,99,0.01,,---,0.16,VWS V14.01,2013-11-03 13:22:00,
2013-11-03 07:26:00,37.6,37.3,30.17,WSW,238,0.0,0.0,99,0.01,,---,0.16,VWS V14.01,2013-11-03 13:26:00,
2013-11-03 07:27:00,37.6,37.3,30.17,WSW,238,0.0,0.0,99,0.01,,---,0.16,VWS V14.01,2013-11-03 13:27:00,
2013-11-03 07:29:00,37.8,37.5,30.18,WSW,238,0.0,0.0,99,0.01,,---,0.16,VWS V14.01,2013-11-03 13:29:00,
2013-11-03 07:31:00,37.9,37.6,30.18,WSW,238,0.0,0.0,99,0.01,,---,0.16,VWS V14.01,2013-11-03 13:31:00,
2013-11-03 07:32:00,37.9,37.6,30.18,WSW,238,0.0,0.0,99,0.01,,---,0.16,VWS V14.01,2013-11-03 13:32:00,
2013-11-03 07:33:00,38.0,37.7,30.18,WSW,238,0.0,0.0,99,0.01,,---,0.16,VWS V14.01,2013-11-03 13:33:00,
2013-11-03 07:34:00,38.0,37.7,30.18,WSW,238,0.0,0.0,99,0.01,,---,0.16,VWS V14.01,2013-11-03 13:34:00,
2013-11-03 07:35:00,38.2,37.9,30.18,WSW,238,0.0,0.0,99,0.01,,---,0.16,VWS V14.01,2013-11-03 13:35:00,
2013-11-03 07:36:00,38.2,37.9,30.18,WSW,238,0.0,0.0,99,0.01,,---,0.16,VWS V14.01,2013-11-03 13:36:00,
2013-11-03 07:37:00,38.2,37.9,30.18,WSW,238,0.0,0.0,99,0.01,,---,0.16,VWS V14.01,2013-11-03 13:37:00,
2013-11-03 07:39:00,38.3,38.0,30.18,WSW,238,0.0,0.0,99,0.00,,---,0.16,VWS V14.01,2013-11-03 13:39:00,
2013-11-03 07:40:00,38.3,38.0,30.18,WSW,238,0.0,0.0,99,0.00,,---,0.16,VWS V14.01,2013-11-03 13:40:00,
2013-11-03 07:42:00,38.5,38.2,30.18,WSW,238,0.0,0.0,99,0.00,,---,0.16,VWS V14.01,2013-11-03 13:42:00,
2013-11-03 07:44:00,38.5,38.2,30.18,WSW,238,0.0,0.0,99,0.00,,---,0.16,VWS V14.01,2013-11-03 13:44:00,
2013-11-03 07:45:00,38.6,38.3,30.18,WSW,238,0.0,0.0,99,0.00,,---,0.16,VWS V14.01,2013-11-03 13:45:00,
2013-11-03 07:46:00,38.6,38.3,30.18,WSW,238,0.0,0.0,99,0.00,,---,0.16,VWS V14.01,2013-11-03 13:46:00,
2013-11-03 07:48:00,38.8,38.5,30.18,WSW,238,0.0,0.0,99,0.00,,---,0.16,VWS V14.01,2013-11-03 13:48:00,
2013-11-03 07:49:00,39.1,38.8,30.18,WSW,238,0.0,0.0,99,0.00,,---,0.16,VWS V14.01,2013-11-03 13:49:00,
2013-11-03 07:52:00,39.3,39.0,30.18,WSW,238,0.0,0.0,99,0.00,,---,0.16,VWS V14.01,2013-11-03 13:52:00,
2013-11-03 07:53:00,39.6,39.3,30.18,WSW,238,0.0,1.0,99,0.00,,---,0.16,VWS V14.01,2013-11-03 13:53:00,
2013-11-03 07:55:00,39.8,39.5,30.18,WSW,238,0.0,0.0,99,0.00,,---,0.16,VWS V14.01,2013-11-03 13:55:00,
2013-11-03 07:57:00,40.1,39.8,30.18,WSW,238,0.0,0.0,99,0.00,,---,0.16,VWS V14.01,2013-11-03 13:57:00,
2013-11-03 07:59:00,40.2,39.9,30.18,SSW,200,1.0,1.0,99,0.00,,---,0.16,VWS V14.01,2013-11-03 13:59:00,
2013-11-03 08:01:00,40.2,39.9,30.18,SSW,200,1.0,1.0,99,0.00,,---,0.16,VWS V14.01,2013-11-03 14:01:00,
2013-11-03 08:04:00,40.8,40.5,30.18,SSW,199,1.0,1.0,99,0.00,,---,0.16,VWS V14.01,2013-11-03 14:04:00,
2013-11-03 08:06:00,40.8,40.5,30.18,SSW,199,0.0,0.0,99,0.00,,---,0.16,VWS V14.01,2013-11-03 14:06:00,
2013-11-03 08:07:00,40.9,40.6,30.18,SSW,199,0.0,0.0,99,0.00,,---,0.16,VWS V14.01,2013-11-03 14:07:00,
2013-11-03 08:10:00,41.1,40.8,30.18,SSW,199,0.0,0.0,99,0.00,,---,0.16,VWS V14.01,2013-11-03 14:10:00,
2013-11-03 08:11:00,41.1,40.8,30.18,SSW,199,0.0,3.0,99,0.00,,---,0.16,VWS V14.01,2013-11-03 14:11:00,
2013-11-03 08:12:00,41.2,40.9,30.18,SSW,199,0.0,1.0,99,0.00,,---,0.16,VWS V14.01,2013-11-03 14:12:00,
2013-11-03 08:14:00,41.3,41.0,30.19,SSW,199,0.0,2.0,99,0.00,,---,0.16,VWS V14.01,2013-11-03 14:14:00,
2013-11-03 08:16:00,41.5,41.2,30.19,SSW,199,0.0,0.0,99,0.00,,---,0.16,VWS V14.01,2013-11-03 14:16:00,
2013-11-03 08:17:00,41.5,41.2,30.19,SSW,199,0.0,0.0,99,0.00,,---,0.16,VWS V14.01,2013-11-03 14:17:00,
2013-11-03 08:18:00,41.5,41.2,30.19,SSW,199,1.0,2.0,99,0.00,,---,0.16,VWS V14.01,2013-11-03 14:18:00,
2013-11-03 08:22:00,41.6,41.3,30.19,SE,131,0.0,3.0,99,0.00,,---,0.16,VWS V14.01,2013-11-03 14:22:00,
2013-11-03 08:23:00,41.6,41.3,30.19,SE,131,0.0,1.0,99,0.00,,---,0.16,VWS V14.01,2013-11-03 14:23:00,
2013-11-03 08:24:00,41.6,41.3,30.19,SSE,165,0.0,3.0,99,0.00,,---,0.16,VWS V14.01,2013-11-03 14:24:00,
2013-11-03 08:26:00,41.8,41.5,30.19,South,171,0.0,0.0,99,0.00,,---,0.16,VWS V14.01,2013-11-03 14:26:00,
2013-11-03 08:28:00,41.8,41.5,30.19,South,171,0.0,0.0,99,0.00,,---,0.16,VWS V14.01,2013-11-03 14:28:00,
2013-11-03 08:29:00,41.9,41.6,30.19,South,171,0.0,2.0,99,0.00,,---,0.16,VWS V14.01,2013-11-03 14:29:00,
2013-11-03 08:31:00,42.2,41.9,30.19,South,170,0.0,2.0,99,0.00,,---,0.16,VWS V14.01,2013-11-03 14:31:00,
2013-11-03 08:32:00,42.3,42.0,30.19,South,170,0.0,0.0,99,0.00,,---,0.16,VWS V14.01,2013-11-03 14:32:00,
2013-11-03 08:33:00,42.5,42.2,30.19,SSE,150,0.0,3.0,99,0.00,,---,0.16,VWS V14.01,2013-11-03 14:33:00,
2013-11-03 08:35:00,42.5,42.2,30.19,SSE,150,0.0,0.0,99,0.00,,---,0.16,VWS V14.01,2013-11-03 14:35:00,
2013-11-03 08:36:00,42.5,42.2,30.19,South,185,1.0,3.0,99,0.00,,---,0.16,VWS V14.01,2013-11-03 14:36:00,
2013-11-03 08:37:00,42.5,42.2,30.19,South,185,1.0,1.0,99,0.00,,---,0.16,VWS V14.01,2013-11-03 14:37:00,
2013-11-03 08:40:00,42.2,41.9,30.19,South,176,1.0,2.0,99,0.00,,---,0.16,VWS V14.01,2013-11-03 14:40:00,
2013-11-03 08:41:00,42.2,41.9,30.19,ESE,122,1.0,3.0,99,0.00,,---,0.16,VWS V14.01,2013-11-03 14:41:00,
2013-11-03 08:42:00,42.2,41.9,30.19,ESE,122,0.0,1.0,99,0.00,,---,0.16,VWS V14.01,2013-11-03 14:42:00,
2013-11-03 08:45:00,42.3,42.0,30.20,South,191,0.0,1.0,99,0.00,,---,0.16,VWS V14.01,2013-11-03 14:45:00,
2013-11-03 08:46:00,42.3,42.0,30.20,South,191,0.0,0.0,99,0.00,,---,0.16,VWS V14.01,2013-11-03 14:46:00,
2013-11-03 08:47:00,42.5,42.2,30.20,ESE,102,1.0,3.0,99,0.00,,---,0.16,VWS V14.01,2013-11-03 14:47:00,
2013-11-03 08:49:00,42.8,42.5,30.20,SSW,199,0.0,1.0,99,0.00,,---,0.16,VWS V14.01,2013-11-03 14:49:00,
2013-11-03 08:51:00,42.8,42.5,30.20,SW,226,2.0,3.0,99,0.00,,---,0.16,VWS V14.01,2013-11-03 14:51:00,
2013-11-03 08:53:00,42.8,42.5,30.20,South,170,0.0,4.0,99,0.00,,---,0.16,VWS V14.01,2013-11-03 14:53:00,
2013-11-03 08:54:00,42.6,42.3,30.20,SSE,165,1.0,2.0,99,0.00,,---,0.16,VWS V14.01,2013-11-03 14:54:00,
2013-11-03 08:55:00,42.6,42.3,30.20,SSE,165,1.0,1.0,99,0.00,,---,0.16,VWS V14.01,2013-11-03 14:55:00,
2013-11-03 08:57:00,42.6,42.1,30.20,South,176,0.0,0.0,98,0.00,,---,0.16,VWS V14.01,2013-11-03 14:57:00,
2013-11-03 08:59:00,42.6,42.1,30.19,South,176,0.0,0.0,98,0.00,,---,0.16,VWS V14.01,2013-11-03 14:59:00,
2013-11-03 09:01:00,42.9,42.6,30.19,WSW,243,0.0,1.0,99,0.00,,---,0.16,VWS V14.01,2013-11-03 15:01:00,
2013-11-03 09:02:00,42.9,42.6,30.19,WSW,243,0.0,0.0,99,0.00,,---,0.16,VWS V14.01,2013-11-03 15:02:00,
2013-11-03 09:05:00,42.9,42.4,30.19,WSW,243,0.0,0.0,98,0.00,,---,0.16,VWS V14.01,2013-11-03 15:05:00,
2013-11-03 09:06:00,43.1,42.6,30.19,WSW,243,0.0,0.0,98,0.00,,---,0.16,VWS V14.01,2013-11-03 15:06:00,
2013-11-03 09:07:00,43.1,42.6,30.19,WSW,243,0.0,0.0,98,0.00,,---,0.16,VWS V14.01,2013-11-03 15:07:00,
2013-11-03 09:11:00,43.3,42.8,30.19,SSE,163,2.0,3.0,98,0.00,,---,0.16,VWS V14.01,2013-11-03 15:11:00,
2013-11-03 09:12:00,43.3,42.8,30.19,SSE,163,0.0,2.0,98,0.00,,---,0.16,VWS V14.01,2013-11-03 15:12:00,
2013-11-03 09:13:00,43.3,42.8,30.19,SSE,164,0.0,1.0,98,0.00,,---,0.16,VWS V14.01,2013-11-03 15:13:00,
2013-11-03 09:16:00,43.3,42.8,30.20,SSE,164,0.0,1.0,98,0.00,,---,0.16,VWS V14.01,2013-11-03 15:16:00,
2013-11-03 09:17:00,43.5,43.0,30.20,SSE,164,0.0,0.0,98,0.00,,---,0.16,VWS V14.01,2013-11-03 15:17:00,
2013-11-03 09:19:00,43.9,43.4,30.20,SSE,157,2.0,3.0,98,0.00,,---,0.16,VWS V14.01,2013-11-03 15:19:00,
2013-11-03 09:21:00,44.3,43.8,30.20,East,97,0.0,1.0,98,0.00,,---,0.16,VWS V14.01,2013-11-03 15:21:00,
2013-11-03 09:22:00,44.5,44.0,30.20,ESE,112,0.0,0.0,98,0.00,,---,0.16,VWS V14.01,2013-11-03 15:22:00,
2013-11-03 09:24:00,44.6,44.1,30.20,SE,127,1.0,3.0,98,0.00,,---,0.16,VWS V14.01,2013-11-03 15:24:00,
2013-11-03 09:28:00,44.9,44.1,30.20,WSW,249,0.0,0.0,97,0.00,,---,0.16,VWS V14.01,2013-11-03 15:28:00,
2013-11-03 09:29:00,44.9,44.1,30.20,WSW,249,0.0,0.0,97,0.00,,---,0.16,VWS V14.01,2013-11-03 15:29:00,
2013-11-03 09:34:00,45.1,44.0,30.20,SSE,162,2.0,2.0,96,0.00,,---,0.16,VWS V14.01,2013-11-03 15:34:00,
2013-11-03 09:35:00,45.1,44.0,30.20,South,174,2.0,3.0,96,0.00,,---,0.16,VWS V14.01,2013-11-03 15:35:00,
2013-11-03 09:36:00,44.9,43.8,30.20,South,174,0.0,3.0,96,0.00,,---,0.16,VWS V14.01,2013-11-03 15:36:00,
2013-11-03 09:37:00,44.9,43.8,30.20,South,174,0.0,3.0,96,0.00,,---,0.16,VWS V14.01,2013-11-03 15:37:00,
2013-11-03 09:40:00,45.1,44.0,30.20,South,174,1.0,3.0,96,0.00,,---,0.16,VWS V14.01,2013-11-03 15:40:00,
2013-11-03 09:42:00,45.2,44.1,30.20,South,176,2.0,5.0,96,0.00,,---,0.16,VWS V14.01,2013-11-03 15:42:00,
2013-11-03 09:43:00,45.2,43.9,30.20,SSE,153,2.0,5.0,95,0.00,,---,0.16,VWS V14.01,2013-11-03 15:43:00,
2013-11-03 09:45:00,45.2,43.9,30.20,SE,141,0.0,5.0,95,0.00,,---,0.16,VWS V14.01,2013-11-03 15:45:00,
2013-11-03 09:46:00,45.1,43.5,30.20,SSW,197,1.0,5.0,94,0.00,,---,0.16,VWS V14.01,2013-11-03 15:46:00,
2013-11-03 09:51:00,44.6,42.7,30.20,SSW,193,1.0,5.0,93,0.00,,---,0.16,VWS V14.01,2013-11-03 15:51:00,
2013-11-03 09:52:00,44.6,42.7,30.20,NNW,331,0.0,5.0,93,0.00,,---,0.16,VWS V14.01,2013-11-03 15:52:00,
2013-11-03 09:53:00,44.6,42.7,30.20,SSW,197,1.0,5.0,93,0.00,,---,0.16,VWS V14.01,2013-11-03 15:53:00,
2013-11-03 09:55:00,44.5,42.6,30.20,SE,143,0.0,5.0,93,0.00,,---,0.16,VWS V14.01,2013-11-03 15:55:00,
2013-11-03 09:57:00,44.5,42.6,30.20,SSE,157,0.0,5.0,93,0.00,,---,0.16,VWS V14.01,2013-11-03 15:57:00,
2013-11-03 09:58:00,44.5,42.6,30.20,SSE,157,0.0,5.0,93,0.00,,---,0.16,VWS V14.01,2013-11-03 15:58:00,
2013-11-03 10:00:00,44.5,42.6,30.21,SSE,161,1.0,5.0,93,0.00,,---,0.16,VWS V14.01,2013-11-03 16:00:00,
2013-11-03 10:03:00,44.6,42.7,30.21,SSW,210,0.0,5.0,93,0.00,,---,0.16,VWS V14.01,2013-11-03 16:03:00,
2013-11-03 10:04:00,44.6,42.7,30.21,SSW,210,0.0,5.0,93,0.00,,---,0.16,VWS V14.01,2013-11-03 16:04:00,
2013-11-03 10:06:00,45.1,43.2,30.21,ESE,122,2.0,5.0,93,0.00,,---,0.16,VWS V14.01,2013-11-03 16:06:00,
2013-11-03 10:07:00,45.4,43.5,30.21,South,172,2.0,5.0,93,0.00,,---,0.16,VWS V14.01,2013-11-03 16:07:00,
2013-11-03 10:09:00,45.7,43.8,30.21,South,172,0.0,5.0,93,0.00,,---,0.16,VWS V14.01,2013-11-03 16:09:00,
2013-11-03 10:11:00,45.7,43.5,30.21,South,172,0.0,5.0,92,0.00,,---,0.16,VWS V14.01,2013-11-03 16:11:00,
2013-11-03 10:14:00,45.7,43.2,30.21,South,172,1.0,5.0,91,0.00,,---,0.16,VWS V14.01,2013-11-03 16:14:00,
2013-11-03 10:16:00,45.8,43.3,30.21,NNE,14,2.0,5.0,91,0.00,,---,0.16,VWS V14.01,2013-11-03 16:16:00,
2013-11-03 10:19:00,46.1,43.3,30.21,SSE,153,0.0,5.0,90,0.00,,---,0.16,VWS V14.01,2013-11-03 16:19:00,
2013-11-03 10:20:00,46.1,43.3,30.21,SSE,150,0.0,5.0,90,0.00,,---,0.16,VWS V14.01,2013-11-03 16:20:00,
2013-11-03 10:22:00,46.1,43.3,30.21,SSE,147,0.0,5.0,90,0.00,,---,0.16,VWS V14.01,2013-11-03 16:22:00,
2013-11-03 10:23:00,46.1,43.0,30.21,SSE,152,2.0,5.0,89,0.00,,---,0.16,VWS V14.01,2013-11-03 16:23:00,
2013-11-03 10:25:00,46.0,43.0,30.21,NE,40,0.0,5.0,89,0.00,,---,0.16,VWS V14.01,2013-11-03 16:25:00,
2013-11-03 10:26:00,46.0,43.0,30.21,NNW,340,1.0,1.0,89,0.00,,---,0.16,VWS V14.01,2013-11-03 16:26:00,
2013-11-03 10:28:00,46.0,43.0,30.21,SSE,157,0.0,1.0,89,0.00,,---,0.16,VWS V14.01,2013-11-03 16:28:00,
2013-11-03 10:30:00,46.1,43.0,30.20,East,91,0.0,4.0,89,0.00,,---,0.16,VWS V14.01,2013-11-03 16:30:00,
2013-11-03 10:31:00,46.2,42.8,30.20,SSE,152,1.0,6.0,88,0.00,,---,0.16,VWS V14.01,2013-11-03 16:31:00,
2013-11-03 10:33:00,46.2,42.5,30.20,South,172,0.0,0.0,87,0.00,,---,0.16,VWS V14.01,2013-11-03 16:33:00,
2013-11-03 10:36:00,46.5,43.1,30.20,South,182,0.0,1.0,88,0.00,,---,0.16,VWS V14.01,2013-11-03 16:36:00,
2013-11-03 10:37:00,46.7,43.0,30.20,South,182,0.0,1.0,87,0.00,,---,0.16,VWS V14.01,2013-11-03 16:37:00,
2013-11-03 10:39:00,46.7,43.0,30.20,South,174,0.0,2.0,87,0.00,,---,0.16,VWS V14.01,2013-11-03 16:39:00,
2013-11-03 10:40:00,46.8,43.1,30.20,SSE,147,3.0,3.0,87,0.00,,---,0.16,VWS V14.01,2013-11-03 16:40:00,
2013-11-03 10:41:00,46.8,42.8,30.20,SE,146,0.0,3.0,86,0.00,,---,0.16,VWS V14.01,2013-11-03 16:41:00,
2013-11-03 10:42:00,47.0,43.3,30.20,SE,146,0.0,0.0,87,0.00,,---,0.16,VWS V14.01,2013-11-03 16:42:00,
2013-11-03 10:43:00,47.3,43.9,30.20,SE,133,1.0,2.0,88,0.00,,---,0.16,VWS V14.01,2013-11-03 16:43:00,
2013-11-03 10:46:00,47.4,43.1,30.20,South,190,2.0,2.0,85,0.00,,---,0.16,VWS V14.01,2013-11-03 16:46:00,
2013-11-03 10:47:00,47.4,42.8,30.20,SSE,162,0.0,4.0,84,0.00,,---,0.16,VWS V14.01,2013-11-03 16:47:00,
2013-11-03 10:48:00,47.3,42.4,30.20,SSE,162,1.0,2.0,83,0.00,,---,0.16,VWS V14.01,2013-11-03 16:48:00,
2013-11-03 10:50:00,47.1,42.2,30.20,SSE,158,2.0,7.0,83,0.00,,---,0.16,VWS V14.01,2013-11-03 16:50:00,
2013-11-03 10:51:00,47.0,41.8,30.20,South,169,2.0,3.0,82,0.00,,---,0.16,VWS V14.01,2013-11-03 16:51:00,
2013-11-03 10:53:00,46.8,41.9,30.20,South,170,2.0,3.0,83,0.00,,---,0.16,VWS V14.01,2013-11-03 16:53:00,
2013-11-03 10:55:00,47.0,41.8,30.20,South,182,2.0,3.0,82,0.00,,---,0.16,VWS V14.01,2013-11-03 16:55:00,
2013-11-03 10:56:00,47.1,41.6,30.20,South,174,0.0,0.0,81,0.00,,---,0.16,VWS V14.01,2013-11-03 16:56:00,
2013-11-03 10:58:00,47.3,42.1,30.20,South,174,0.0,2.0,82,0.00,,---,0.16,VWS V14.01,2013-11-03 16:58:00,
2013-11-03 11:01:00,48.0,43.1,30.19,SSW,206,3.0,3.0,83,0.00,,---,0.16,VWS V14.01,2013-11-03 17:01:00,
2013-11-03 11:03:00,48.0,42.1,30.19,SSE,156,0.0,0.0,80,0.00,,---,0.16,VWS V14.01,2013-11-03 17:03:00,
2013-11-03 11:06:00,47.7,41.8,30.19,South,171,1.0,2.0,80,0.00,,---,0.16,VWS V14.01,2013-11-03 17:06:00,
2013-11-03 11:07:00,47.7,41.8,30.19,South,174,0.0,0.0,80,0.00,,---,0.16,VWS V14.01,2013-11-03 17:07:00,
2013-11-03 11:08:00,47.7,42.2,30.19,South,188,1.0,1.0,81,0.00,,---,0.16,VWS V14.01,2013-11-03 17:08:00,
2013-11-03 11:09:00,47.9,42.4,30.19,SE,146,1.0,2.0,81,0.00,,---,0.16,VWS V14.01,2013-11-03 17:09:00,
2013-11-03 11:10:00,48.0,42.5,30.19,South,174,1.0,3.0,81,0.00,,---,0.16,VWS V14.01,2013-11-03 17:10:00,
2013-11-03 11:12:00,48.6,43.7,30.19,SSW,212,0.0,1.0,83,0.00,,---,0.16,VWS V14.01,2013-11-03 17:12:00,
2013-11-03 11:13:00,48.8,43.9,30.19,SSE,158,2.0,2.0,83,0.00,,---,0.16,VWS V14.01,2013-11-03 17:13:00,
2013-11-03 11:14:00,48.9,43.7,30.19,SE,141,0.0,0.0,82,0.00,,---,0.16,VWS V14.01,2013-11-03 17:14:00,
2013-11-03 11:17:00,48.9,43.0,30.19,SE,138,0.0,2.0,80,0.00,,---,0.16,VWS V14.01,2013-11-03 17:17:00,
2013-11-03 11:18:00,48.9,42.7,30.19,South,190,3.0,4.0,79,0.00,,---,0.16,VWS V14.01,2013-11-03 17:18:00,
2013-11-03 11:21:00,48.6,41.7,30.19,SSE,155,0.0,1.0,77,0.00,,---,0.16,VWS V14.01,2013-11-03 17:21:00,
2013-11-03 11:25:00,48.6,41.7,30.19,SSW,197,0.0,0.0,77,0.00,,---,0.16,VWS V14.01,2013-11-03 17:25:00,
2013-11-03 11:26:00,48.6,41.7,30.19,SE,138,0.0,2.0,77,0.00,,---,0.16,VWS V14.01,2013-11-03 17:26:00,
2013-11-03 11:27:00,48.8,41.9,30.19,SE,138,0.0,0.0,77,0.00,,---,0.16,VWS V14.01,2013-11-03 17:27:00,
2013-11-03 11:28:00,48.6,41.7,30.19,SSE,162,0.0,1.0,77,0.00,,---,0.16,VWS V14.01,2013-11-03 17:28:00,
2013-11-03 11:31:00,48.5,41.6,30.19,SSE,162,0.0,0.0,77,0.00,,---,0.16,VWS V14.01,2013-11-03 17:31:00,
2013-11-03 11:32:00,48.5,42.0,30.19,SSE,162,0.0,0.0,78,0.00,,---,0.16,VWS V14.01,2013-11-03 17:32:00,
2013-11-03 11:34:00,48.5,42.0,30.19,North,358,1.0,2.0,78,0.00,,---,0.16,VWS V14.01,2013-11-03 17:34:00,
2013-11-03 11:36:00,48.5,41.6,30.19,SSW,204,1.0,4.0,77,0.00,,---,0.16,VWS V14.01,2013-11-03 17:36:00,
2013-11-03 11:37:00,48.3,41.1,30.19,SSW,195,0.0,0.0,76,0.00,,---,0.16,VWS V14.01,2013-11-03 17:37:00,
2013-11-03 11:38:00,48.3,41.1,30.19,SSW,195,0.0,0.0,76,0.00,,---,0.16,VWS V14.01,2013-11-03 17:38:00,
2013-11-03 11:41:00,48.0,40.1,30.19,SE,146,0.0,0.0,74,0.00,,---,0.16,VWS V14.01,2013-11-03 17:41:00,
2013-11-03 11:42:00,48.0,40.1,30.19,SSW,211,2.0,2.0,74,0.00,,---,0.16,VWS V14.01,2013-11-03 17:42:00,
2013-11-03 11:44:00,48.0,40.5,30.19,South,181,2.0,3.0,75,0.00,,---,0.16,VWS V14.01,2013-11-03 17:44:00,
2013-11-03 11:45:00,48.0,40.5,30.19,South,182,0.0,3.0,75,0.00,,---,0.16,VWS V14.01,2013-11-03 17:45:00,
2013-11-03 11:47:00,48.2,40.7,30.19,SSE,147,0.0,3.0,75,0.00,,---,0.16,VWS V14.01,2013-11-03 17:47:00,
2013-11-03 11:48:00,48.3,40.8,30.19,SSW,197,2.0,3.0,75,0.00,,---,0.16,VWS V14.01,2013-11-03 17:48:00,
2013-11-03 11:50:00,48.6,40.3,30.19,SW,221,3.0,4.0,73,0.00,,---,0.16,VWS V14.01,2013-11-03 17:50:00,
2013-11-03 11:51:00,48.6,40.0,30.19,West,262,0.0,0.0,72,0.00,,---,0.16,VWS V14.01,2013-11-03 17:51:00,
2013-11-03 11:52:00,48.8,40.2,30.19,West,262,0.0,0.0,72,0.00,,---,0.16,VWS V14.01,2013-11-03 17:52:00,
2013-11-03 11:53:00,48.8,40.5,30.19,South,174,0.0,2.0,73,0.00,,---,0.16,VWS V14.01,2013-11-03 17:53:00,
2013-11-03 11:55:00,48.9,40.6,30.19,SSE,152,0.0,1.0,73,0.00,,---,0.16,VWS V14.01,2013-11-03 17:55:00,
2013-11-03 11:58:00,49.2,40.9,30.19,North,4,0.0,4.0,73,0.00,,---,0.16,VWS V14.01,2013-11-03 17:58:00,
2013-11-03 11:59:00,49.2,41.3,30.18,South,186,2.0,2.0,74,0.00,,---,0.16,VWS V14.01,2013-11-03 17:59:00,
2013-11-03 12:00:00,49.2,40.6,30.18,SE,133,1.0,3.0,72,0.00,,---,0.16,VWS V14.01,2013-11-03 18:00:00,
2013-11-03 12:01:00,49.4,40.8,30.18,SE,128,0.0,0.0,72,0.00,,---,0.16,VWS V14.01,2013-11-03 18:01:00,
2013-11-03 12:02:00,49.5,40.9,30.18,SE,129,0.0,1.0,72,0.00,,---,0.16,VWS V14.01,2013-11-03 18:02:00,
2013-11-03 12:04:00,49.5,40.1,30.18,ENE,58,1.0,3.0,70,0.00,,---,0.16,VWS V14.01,2013-11-03 18:04:00,
2013-11-03 12:07:00,49.4,40.0,30.18,ENE,75,0.0,0.0,70,0.00,,---,0.16,VWS V14.01,2013-11-03 18:07:00,
2013-11-03 12:08:00,49.2,39.5,30.18,SE,128,0.0,2.0,69,0.00,,---,0.16,VWS V14.01,2013-11-03 18:08:00,
2013-11-03 12:09:00,49.1,39.4,30.18,SSE,164,0.0,2.0,69,0.00,,---,0.16,VWS V14.01,2013-11-03 18:09:00,
2013-11-03 12:10:00,48.8,39.1,30.18,SSE,163,0.0,0.0,69,0.00,,---,0.16,VWS V14.01,2013-11-03 18:10:00,
2013-11-03 12:11:00,48.8,39.5,30.18,SSE,163,0.0,0.0,70,0.00,,---,0.16,VWS V14.01,2013-11-03 18:11:00,
2013-11-03 12:13:00,48.8,39.8,30.18,South,172,0.0,1.0,71,0.00,,---,0.16,VWS V14.01,2013-11-03 18:13:00,
2013-11-03 12:16:00,48.6,39.3,30.18,SE,135,2.0,4.0,70,0.00,,---,0.16,VWS V14.01,2013-11-03 18:16:00,
2013-11-03 12:17:00,48.8,39.5,30.18,NNE,32,0.0,2.0,70,0.00,,---,0.16,VWS V14.01,2013-11-03 18:17:00,
2013-11-03 12:18:00,48.8,39.5,30.18,NNE,32,0.0,0.0,70,0.00,,---,0.16,VWS V14.01,2013-11-03 18:18:00,
2013-11-03 12:20:00,49.2,40.2,30.18,NNE,26,0.0,1.0,71,0.00,,---,0.16,VWS V14.01,2013-11-03 18:20:00,
2013-11-03 12:21:00,49.5,40.1,30.18,SW,218,0.0,1.0,70,0.00,,---,0.16,VWS V14.01,2013-11-03 18:21:00,
2013-11-03 12:23:00,49.6,39.5,30.18,SE,145,2.0,4.0,68,0.00,,---,0.16,VWS V14.01,2013-11-03 18:23:00,
2013-11-03 12:24:00,49.6,38.7,30.18,SSW,211,1.0,2.0,66,0.00,,---,0.16,VWS V14.01,2013-11-03 18:24:00,
2013-11-03 12:28:00,49.5,39.4,30.18,SSE,167,1.0,2.0,68,0.00,,---,0.16,VWS V14.01,2013-11-03 18:28:00,
2013-11-03 12:29:00,49.5,39.0,30.17,South,191,0.0,3.0,67,0.00,,---,0.16,VWS V14.01,2013-11-03 18:29:00,
2013-11-03 12:30:00,49.5,39.4,30.17,SSW,192,0.0,2.0,68,0.00,,---,0.16,VWS V14.01,2013-11-03 18:30:00,
2013-11-03 12:34:00,49.6,38.7,30.17,South,191,0.0,1.0,66,0.00,,---,0.16,VWS V14.01,2013-11-03 18:34:00,
2013-11-03 12:35:00,49.6,38.7,30.17,SE,132,3.0,4.0,66,0.00,,---,0.16,VWS V14.01,2013-11-03 18:35:00,
2013-11-03 12:36:00,49.6,38.3,30.17,South,169,2.0,3.0,65,0.00,,---,0.16,VWS V14.01,2013-11-03 18:36:00,
2013-11-03 12:37:00,49.8,38.5,30.17,ESE,120,0.0,3.0,65,0.00,,---,0.16,VWS V14.01,2013-11-03 18:37:00,
2013-11-03 12:41:00,50.1,37.6,30.17,SSW,196,0.0,5.0,62,0.00,,---,0.16,VWS V14.01,2013-11-03 18:41:00,
2013-11-03 12:42:00,50.1,37.6,30.17,WSW,237,1.0,1.0,62,0.00,,---,0.16,VWS V14.01,2013-11-03 18:42:00,
2013-11-03 12:43:00,50.1,37.6,30.17,WSW,257,0.0,2.0,62,0.00,,---,0.16,VWS V14.01,2013-11-03 18:43:00,
2013-11-03 12:44:00,50.2,37.7,30.17,WSW,256,1.0,1.0,62,0.00,,---,0.16,VWS V14.01,2013-11-03 18:44:00,
2013-11-03 12:49:00,50.8,39.5,30.17,SW,217,2.0,2.0,65,0.00,,---,0.16,VWS V14.01,2013-11-03 18:49:00,
2013-11-03 12:50:00,50.8,39.1,30.17,SW,227,0.0,1.0,64,0.00,,---,0.16,VWS V14.01,2013-11-03 18:50:00,
2013-11-03 12:51:00,51.0,39.3,30.17,SSE,152,1.0,2.0,64,0.00,,---,0.16,VWS V14.01,2013-11-03 18:51:00,
2013-11-03 12:52:00,51.0,38.5,30.17,SE,139,3.0,3.0,62,0.00,,---,0.16,VWS V14.01,2013-11-03 18:52:00,
2013-11-03 12:53:00,51.0,38.5,30.17,South,184,0.0,3.0,62,0.00,,---,0.16,VWS V14.01,2013-11-03 18:53:00,
2013-11-03 12:54:00,51.0,38.0,30.17,SSE,160,0.0,1.0,61,0.00,,---,0.16,VWS V14.01,2013-11-03 18:54:00,
2013-11-03 12:55:00,51.0,38.0,30.17,SE,141,3.0,3.0,61,0.00,,---,0.16,VWS V14.01,2013-11-03 18:55:00,
2013-11-03 12:56:00,51.0,38.0,30.17,NW,311,0.0,0.0,61,0.00,,---,0.16,VWS V14.01,2013-11-03 18:56:00,
2013-11-03 13:00:00,51.1,38.5,30.16,SE,145,0.0,3.0,62,0.00,,---,0.16,VWS V14.01,2013-11-03 19:00:00,
2013-11-03 13:01:00,51.0,38.5,30.16,SE,145,1.0,1.0,62,0.00,,---,0.16,VWS V14.01,2013-11-03 19:01:00,
2013-11-03 13:02:00,51.0,38.0,30.16,WNW,286,1.0,1.0,61,0.00,,---,0.16,VWS V14.01,2013-11-03 19:02:00,
2013-11-03 13:05:00,51.0,38.0,30.16,SE,146,0.0,1.0,61,0.00,,---,0.16,VWS V14.01,2013-11-03 19:05:00,
2013-11-03 13:06:00,51.0,38.5,30.16,SE,146,0.0,1.0,62,0.00,,---,0.16,VWS V14.01,2013-11-03 19:06:00,
2013-11-03 13:07:00,50.8,38.3,30.16,SE,146,0.0,0.0,62,0.00,,---,0.16,VWS V14.01,2013-11-03 19:07:00,
2013-11-03 13:11:00,50.7,38.6,30.16,SSW,192,0.0,0.0,63,0.00,,---,0.16,VWS V14.01,2013-11-03 19:11:00,
2013-11-03 13:12:00,50.7,39.0,30.16,South,187,0.0,0.0,64,0.00,,---,0.16,VWS V14.01,2013-11-03 19:12:00,
2013-11-03 13:13:00,50.7,39.0,30.16,South,172,1.0,2.0,64,0.00,,---,0.16,VWS V14.01,2013-11-03 19:13:00,
2013-11-03 13:14:00,50.5,38.8,30.16,NNE,23,0.0,1.0,64,0.00,,---,0.16,VWS V14.01,2013-11-03 19:14:00,
2013-11-03 13:16:00,50.5,38.4,30.16,North,4,0.0,0.0,63,0.00,,---,0.16,VWS V14.01,2013-11-03 19:16:00,
2013-11-03 13:17:00,50.5,38.8,30.16,South,177,0.0,1.0,64,0.00,,---,0.16,VWS V14.01,2013-11-03 19:17:00,
2013-11-03 13:18:00,50.7,39.4,30.16,SSW,200,1.0,2.0,65,0.00,,---,0.16,VWS V14.01,2013-11-03 19:18:00,
2013-11-03 13:19:00,50.7,38.6,30.16,SSW,200,0.0,1.0,63,0.00,,---,0.16,VWS V14.01,2013-11-03 19:19:00,
2013-11-03 13:20:00,50.8,38.7,30.16,SE,146,0.0,2.0,63,0.00,,---,0.16,VWS V14.01,2013-11-03 19:20:00,
2013-11-03 13:22:00,51.0,38.9,30.16,SW,220,0.0,0.0,63,0.00,,---,0.16,VWS V14.01,2013-11-03 19:22:00,
2013-11-03 13:23:00,51.1,39.0,30.16,SSW,196,1.0,1.0,63,0.00,,---,0.16,VWS V14.01,2013-11-03 19:23:00,
2013-11-03 13:24:00,51.1,38.5,30.16,SSW,195,0.0,2.0,62,0.00,,---,0.16,VWS V14.01,2013-11-03 19:24:00,
2013-11-03 13:26:00,51.3,38.7,30.16,South,179,3.0,4.0,62,0.00,,---,0.16,VWS V14.01,2013-11-03 19:26:00,
2013-11-03 13:28:00,51.1,37.3,30.16,South,188,1.0,5.0,59,0.00,,---,0.16,VWS V14.01,2013-11-03 19:28:00,
2013-11-03 13:29:00,51.0,37.2,30.16,South,188,0.0,2.0,59,0.00,,---,0.16,VWS V14.01,2013-11-03 19:29:00,
2013-11-03 13:30:00,50.8,37.0,30.16,SSE,161,0.0,2.0,59,0.00,,---,0.16,VWS V14.01,2013-11-03 19:30:00,
2013-11-03 13:31:00,50.8,37.0,30.16,ESE,122,1.0,3.0,59,0.00,,---,0.16,VWS V14.01,2013-11-03 19:31:00,
2013-11-03 13:32:00,50.7,36.9,30.16,ESE,122,0.0,1.0,59,0.00,,---,0.16,VWS V14.01,2013-11-03 19:32:00,
2013-11-03 13:34:00,50.7,36.9,30.16,ESE,122,0.0,0.0,59,0.00,,---,0.16,VWS V14.01,2013-11-03 19:34:00,
2013-11-03 13:35:00,50.5,36.7,30.16,ESE,122,0.0,0.0,59,0.00,,---,0.16,VWS V14.01,2013-11-03 19:35:00,
2013-11-03 13:37:00,50.5,37.2,30.16,SSE,159,3.0,3.0,60,0.00,,---,0.16,VWS V14.01,2013-11-03 19:37:00,
2013-11-03 13:38:00,50.4,37.5,30.16,South,170,1.0,3.0,61,0.00,,---,0.16,VWS V14.01,2013-11-03 19:38:00,
2013-11-03 13:40:00,50.4,37.9,30.16,ESE,122,2.0,4.0,62,0.00,,---,0.16,VWS V14.01,2013-11-03 19:40:00,
2013-11-03 13:42:00,50.2,37.3,30.16,SE,126,0.0,0.0,61,0.00,,---,0.16,VWS V14.01,2013-11-03 19:42:00,
2013-11-03 13:44:00,50.1,37.6,30.16,SE,143,1.0,3.0,62,0.00,,---,0.16,VWS V14.01,2013-11-03 19:44:00,
2013-11-03 13:46:00,50.1,37.6,30.16,SW,230,0.0,2.0,62,0.00,,---,0.16,VWS V14.01,2013-11-03 19:46:00,
2013-11-03 13:47:00,49.9,37.4,30.16,WSW,249,0.0,2.0,62,0.00,,---,0.16,VWS V14.01,2013-11-03 19:47:00,
2013-11-03 13:49:00,49.9,37.8,30.16,WSW,249,0.0,0.0,63,0.00,,---,0.16,VWS V14.01,2013-11-03 19:49:00,
2013-11-03 13:51:00,50.1,38.8,30.16,WSW,249,0.0,0.0,65,0.00,,---,0.16,VWS V14.01,2013-11-03 19:51:00,
2013-11-03 13:52:00,50.1,38.8,30.16,SSE,162,0.0,1.0,65,0.00,,---,0.16,VWS V14.01,2013-11-03 19:52:00,
2013-11-03 13:56:00,50.1,37.6,30.16,SE,146,0.0,0.0,62,0.00,,---,0.16,VWS V14.01,2013-11-03 19:56:00,
2013-11-03 13:57:00,50.1,38.0,30.16,SE,146,0.0,0.0,63,0.00,,---,0.16,VWS V14.01,2013-11-03 19:57:00,
2013-11-03 13:58:00,50.1,38.0,30.16,SE,139,1.0,2.0,63,0.00,,---,0.16,VWS V14.01,2013-11-03 19:58:00,
2013-11-03 13:59:00,50.1,38.4,30.16,SE,139,0.0,2.0,64,0.00,,---,0.16,VWS V14.01,2013-11-03 19:59:00,
2013-11-03 14:00:00,50.1,38.4,30.16,ENE,68,0.0,0.0,64,0.00,,---,0.16,VWS V14.01,2013-11-03 20:00:00,
2013-11-03 14:01:00,49.9,37.8,30.16,South,181,1.0,1.0,63,0.00,,---,0.16,VWS V14.01,2013-11-03 20:01:00,
2013-11-03 14:02:00,49.9,37.4,30.16,SE,125,0.0,3.0,62,0.00,,---,0.16,VWS V14.01,2013-11-03 20:02:00,
2013-11-03 14:04:00,49.8,36.9,30.16,ESE,105,2.0,2.0,61,0.00,,---,0.16,VWS V14.01,2013-11-03 20:04:00,
2013-11-03 14:05:00,49.8,36.9,30.16,ESE,113,0.0,0.0,61,0.00,,---,0.16,VWS V14.01,2013-11-03 20:05:00,
2013-11-03 14:06:00,49.8,36.9,30.16,ESE,113,0.0,0.0,61,0.00,,---,0.16,VWS V14.01,2013-11-03 20:06:00,
2013-11-03 14:07:00,49.8,36.9,30.16,SSE,165,0.0,0.0,61,0.00,,---,0.16,VWS V14.01,2013-11-03 20:07:00,
2013-11-03 14:09:00,49.8,36.5,30.16,SE,139,0.0,3.0,60,0.00,,---,0.16,VWS V14.01,2013-11-03 20:09:00,
2013-11-03 14:11:00,49.8,36.5,30.16,SE,144,0.0,0.0,60,0.00,,---,0.16,VWS V14.01,2013-11-03 20:11:00,
2013-11-03 14:12:00,49.8,36.9,30.16,SE,139,2.0,3.0,61,0.00,,---,0.16,VWS V14.01,2013-11-03 20:12:00,
2013-11-03 14:14:00,49.8,36.9,30.16,SE,139,0.0,0.0,61,0.00,,---,0.16,VWS V14.01,2013-11-03 20:14:00,
2013-11-03 14:15:00,49.8,37.3,30.16,SW,215,2.0,2.0,62,0.00,,---,0.16,VWS V14.01,2013-11-03 20:15:00,
2013-11-03 14:16:00,49.8,37.3,30.16,SW,231,2.0,3.0,62,0.00,,---,0.16,VWS V14.01,2013-11-03 20:16:00,
2013-11-03 14:17:00,49.8,36.9,30.16,SE,146,1.0,2.0,61,0.00,,---,0.16,VWS V14.01,2013-11-03 20:17:00,
2013-11-03 14:18:00,49.8,36.9,30.16,SSE,153,0.0,2.0,61,0.00,,---,0.16,VWS V14.01,2013-11-03 20:18:00,
2013-11-03 14:20:00,49.8,36.9,30.16,South,173,0.0,4.0,61,0.00,,---,0.16,VWS V14.01,2013-11-03 20:20:00,
2013-11-03 14:22:00,49.9,37.4,30.16,SSE,152,0.0,2.0,62,0.00,,---,0.16,VWS V14.01,2013-11-03 20:22:00,
2013-11-03 14:23:00,50.1,38.0,30.16,SSE,152,0.0,0.0,63,0.00,,---,0.16,VWS V14.01,2013-11-03 20:23:00,
2013-11-03 14:25:00,50.1,37.6,30.16,SSE,158,0.0,3.0,62,0.00,,---,0.16,VWS V14.01,2013-11-03 20:25:00,
2013-11-03 14:28:00,50.1,37.6,30.16,ESE,107,1.0,1.0,62,0.00,,---,0.16,VWS V14.01,2013-11-03 20:28:00,
2013-11-03 14:29:00,50.1,37.6,30.16,SSE,149,3.0,4.0,62,0.00,,---,0.16,VWS V14.01,2013-11-03 20:29:00,
2013-11-03 14:30:00,50.1,37.6,30.16,SSW,212,1.0,3.0,62,0.00,,---,0.16,VWS V14.01,2013-11-03 20:30:00,
2013-11-03 14:32:00,49.9,37.4,30.16,South,172,2.0,2.0,62,0.00,,---,0.16,VWS V14.01,2013-11-03 20:32:00,
2013-11-03 14:33:00,49.9,37.8,30.16,South,172,0.0,0.0,63,0.00,,---,0.16,VWS V14.01,2013-11-03 20:33:00,
2013-11-03 14:35:00,49.9,38.6,30.16,SSE,152,2.0,2.0,65,0.00,,---,0.16,VWS V14.01,2013-11-03 20:35:00,
2013-11-03 14:38:00,49.9,37.8,30.16,SSE,159,0.0,0.0,63,0.00,,---,0.16,VWS V14.01,2013-11-03 20:38:00,
2013-11-03 14:40:00,49.9,37.4,30.16,SSW,193,0.0,3.0,62,0.00,,---,0.16,VWS V14.01,2013-11-03 20:40:00,
2013-11-03 14:41:00,49.9,37.4,30.16,South,174,0.0,3.0,62,0.00,,---,0.16,VWS V14.01,2013-11-03 20:41:00,
2013-11-03 14:44:00,49.9,37.4,30.15,SSE,148,0.0,1.0,62,0.00,,---,0.16,VWS V14.01,2013-11-03 20:44:00,
2013-11-03 14:45:00,49.9,37.4,30.15,South,176,1.0,2.0,62,0.00,,---,0.16,VWS V14.01,2013-11-03 20:45:00,
2013-11-03 14:46:00,49.9,37.0,30.15,South,174,3.0,4.0,61,0.00,,---,0.16,VWS V14.01,2013-11-03 20:46:00,
2013-11-03 14:47:00,49.9,36.2,30.15,SSE,161,0.0,1.0,59,0.00,,---,0.16,VWS V14.01,2013-11-03 20:47:00,
2013-11-03 14:50:00,49.9,36.2,30.15,SSE,158,1.0,2.0,59,0.00,,---,0.16,VWS V14.01,2013-11-03 20:50:00,
2013-11-03 14:52:00,50.1,37.2,30.15,SE,127,0.0,0.0,61,0.00,,---,0.16,VWS V14.01,2013-11-03 20:52:00,
2013-11-03 14:53:00,50.2,37.3,30.15,SSE,155,1.0,1.0,61,0.00,,---,0.16,VWS V14.01,2013-11-03 20:53:00,
2013-11-03 14:54:00,50.4,37.0,30.15,South,188,0.0,1.0,60,0.00,,---,0.16,VWS V14.01,2013-11-03 20:54:00,
2013-11-03 14:57:00,50.2,37.7,30.15,South,188,2.0,2.0,62,0.00,,---,0.16,VWS V14.01,2013-11-03 20:57:00,
2013-11-03 14:59:00,50.1,37.2,30.15,South,181,0.0,2.0,61,0.00,,---,0.16,VWS V14.01,2013-11-03 20:59:00,
2013-11-03 15:00:00,50.1,37.2,30.15,South,181,0.0,2.0,61,0.00,,---,0.16,VWS V14.01,2013-11-03 21:00:00,
2013-11-03 15:01:00,50.1,37.2,30.15,South,176,2.0,3.0,61,0.00,,---,0.16,VWS V14.01,2013-11-03 21:01:00,
2013-11-03 15:02:00,49.9,36.6,30.15,SSE,148,0.0,3.0,60,0.00,,---,0.16,VWS V14.01,2013-11-03 21:02:00,
2013-11-03 15:03:00,49.9,36.6,30.15,SW,215,2.0,4.0,60,0.00,,---,0.16,VWS V14.01,2013-11-03 21:03:00,
2013-11-03 15:07:00,49.6,35.9,30.15,SSE,165,0.0,0.0,59,0.00,,---,0.16,VWS V14.01,2013-11-03 21:07:00,
2013-11-03 15:08:00,49.6,35.9,30.15,SSE,165,0.0,0.0,59,0.00,,---,0.16,VWS V14.01,2013-11-03 21:08:00,
2013-11-03 15:09:00,49.6,35.9,30.15,South,188,5.0,5.0,59,0.00,,---,0.16,VWS V14.01,2013-11-03 21:09:00,
2013-11-03 15:10:00,49.5,35.8,30.15,South,181,0.0,5.0,59,0.00,,---,0.16,VWS V14.01,2013-11-03 21:10:00,
2013-11-03 15:12:00,49.6,36.3,30.15,South,181,0.0,1.0,60,0.00,,---,0.16,VWS V14.01,2013-11-03 21:12:00,
2013-11-03 15:14:00,49.6,36.7,30.15,SE,141,1.0,3.0,61,0.00,,---,0.16,VWS V14.01,2013-11-03 21:14:00,
2013-11-03 15:15:00,49.8,36.5,30.15,SSE,153,0.0,1.0,60,0.00,,---,0.16,VWS V14.01,2013-11-03 21:15:00,
2013-11-03 15:16:00,49.9,36.6,30.15,SSE,166,1.0,3.0,60,0.00,,---,0.16,VWS V14.01,2013-11-03 21:16:00,
2013-11-03 15:17:00,49.9,36.2,30.15,South,171,1.0,3.0,59,0.00,,---,0.16,VWS V14.01,2013-11-03 21:17:00,
2013-11-03 15:18:00,50.1,36.3,30.15,South,171,0.0,3.0,59,0.00,,---,0.16,VWS V14.01,2013-11-03 21:18:00,
2013-11-03 15:21:00,50.4,35.3,30.15,South,174,0.0,6.0,56,0.00,,---,0.16,VWS V14.01,2013-11-03 21:21:00,
2013-11-03 15:23:00,50.5,37.2,30.15,North,9,0.0,0.0,60,0.00,,---,0.16,VWS V14.01,2013-11-03 21:23:00,
2013-11-03 15:24:00,50.7,37.3,30.15,SE,134,0.0,0.0,60,0.00,,---,0.16,VWS V14.01,2013-11-03 21:24:00,
2013-11-03 15:26:00,50.7,37.3,30.15,SSE,153,0.0,0.0,60,0.00,,---,0.16,VWS V14.01,2013-11-03 21:26:00,
2013-11-03 15:27:00,50.8,37.4,30.15,SSW,198,2.0,2.0,60,0.00,,---,0.16,VWS V14.01,2013-11-03 21:27:00,
2013-11-03 15:30:00,50.8,38.3,30.14,SE,129,0.0,1.0,62,0.00,,---,0.16,VWS V14.01,2013-11-03 21:30:00,
2013-11-03 15:32:00,50.8,37.8,30.14,SSE,157,4.0,4.0,61,0.00,,---,0.16,VWS V14.01,2013-11-03 21:32:00,
2013-11-03 15:33:00,50.8,37.0,30.14,South,180,1.0,4.0,59,0.00,,---,0.16,VWS V14.01,2013-11-03 21:33:00,
2013-11-03 15:35:00,51.0,37.2,30.14,South,187,0.0,1.0,59,0.00,,---,0.16,VWS V14.01,2013-11-03 21:35:00,
2013-11-03 15:36:00,51.0,36.8,30.14,SW,224,0.0,2.0,58,0.00,,---,0.16,VWS V14.01,2013-11-03 21:36:00,
2013-11-03 15:38:00,51.0,36.8,30.14,SSE,158,1.0,4.0,58,0.00,,---,0.16,VWS V14.01,2013-11-03 21:38:00,
2013-11-03 15:39:00,51.0,36.8,30.14,SE,133,0.0,4.0,58,0.00,,---,0.16,VWS V14.01,2013-11-03 21:39:00,
2013-11-03 15:42:00,50.5,36.3,30.14,SW,219,1.0,4.0,58,0.00,,---,0.16,VWS V14.01,2013-11-03 21:42:00,
2013-11-03 15:43:00,50.4,36.2,30.14,SW,221,3.0,6.0,58,0.00,,---,0.16,VWS V14.01,2013-11-03 21:43:00,
2013-11-03 15:44:00,50.4,36.2,30.15,SSE,164,3.0,3.0,58,0.00,,---,0.16,VWS V14.01,2013-11-03 21:44:00,
2013-11-03 15:45:00,50.1,35.9,30.15,ESE,115,2.0,3.0,58,0.00,,---,0.16,VWS V14.01,2013-11-03 21:45:00,
2013-11-03 15:46:00,49.9,36.2,30.15,South,170,0.0,2.0,59,0.00,,---,0.16,VWS V14.01,2013-11-03 21:46:00,
2013-11-03 15:48:00,49.8,36.1,30.15,South,169,0.0,0.0,59,0.00,,---,0.16,VWS V14.01,2013-11-03 21:48:00,
2013-11-03 15:49:00,49.8,36.1,30.15,SE,146,0.0,1.0,59,0.00,,---,0.16,VWS V14.01,2013-11-03 21:49:00,
2013-11-03 15:51:00,49.6,35.9,30.15,South,179,1.0,2.0,59,0.00,,---,0.16,VWS V14.01,2013-11-03 21:51:00,
2013-11-03 15:55:00,49.2,35.5,30.15,SW,236,0.0,1.0,59,0.00,,---,0.16,VWS V14.01,2013-11-03 21:55:00,
2013-11-03 15:57:00,49.1,35.8,30.15,SW,226,0.0,2.0,60,0.00,,---,0.16,VWS V14.01,2013-11-03 21:57:00,
2013-11-03 15:58:00,48.9,35.6,30.15,SW,226,0.0,0.0,60,0.00,,---,0.16,VWS V14.01,2013-11-03 21:58:00,
2013-11-03 16:02:00,48.8,36.4,30.16,SW,226,0.0,0.0,62,0.00,,---,0.16,VWS V14.01,2013-11-03 22:02:00,
2013-11-03 16:03:00,48.8,36.4,30.16,SW,226,0.0,0.0,62,0.00,,---,0.16,VWS V14.01,2013-11-03 22:03:00,
2013-11-03 16:07:00,48.2,36.2,30.16,SSE,153,1.0,2.0,63,0.00,,---,0.16,VWS V14.01,2013-11-03 22:07:00,
2013-11-03 16:08:00,48.0,36.0,30.16,SSE,153,0.0,0.0,63,0.00,,---,0.16,VWS V14.01,2013-11-03 22:08:00,
2013-11-03 16:09:00,48.0,36.4,30.16,SSE,153,0.0,0.0,64,0.00,,---,0.16,VWS V14.01,2013-11-03 22:09:00,
2013-11-03 16:10:00,47.9,36.3,30.16,SSE,153,0.0,0.0,64,0.00,,---,0.16,VWS V14.01,2013-11-03 22:10:00,
2013-11-03 16:11:00,47.9,36.3,30.16,SSE,153,0.0,2.0,64,0.00,,---,0.16,VWS V14.01,2013-11-03 22:11:00,
2013-11-03 16:13:00,47.7,36.5,30.16,SSE,153,0.0,1.0,65,0.00,,---,0.16,VWS V14.01,2013-11-03 22:13:00,
2013-11-03 16:14:00,47.7,36.5,30.15,SSE,153,0.0,1.0,65,0.00,,---,0.16,VWS V14.01,2013-11-03 22:14:00,
2013-11-03 16:16:00,47.6,36.8,30.15,SSE,153,0.0,0.0,66,0.00,,---,0.16,VWS V14.01,2013-11-03 22:16:00,
2013-11-03 16:18:00,47.4,36.6,30.15,SSE,153,0.0,0.0,66,0.00,,---,0.16,VWS V14.01,2013-11-03 22:18:00,
2013-11-03 16:19:00,47.4,36.6,30.15,SSE,153,2.0,2.0,66,0.00,,---,0.16,VWS V14.01,2013-11-03 22:19:00,
2013-11-03 16:20:00,47.3,36.5,30.15,SSE,160,2.0,3.0,66,0.00,,---,0.16,VWS V14.01,2013-11-03 22:20:00,
2013-11-03 16:22:00,47.1,36.3,30.15,SSE,155,1.0,2.0,66,0.00,,---,0.16,VWS V14.01,2013-11-03 22:22:00,
2013-11-03 16:23:00,47.1,36.3,30.15,SSE,155,0.0,0.0,66,0.00,,---,0.16,VWS V14.01,2013-11-03 22:23:00,
2013-11-03 16:24:00,47.1,36.7,30.15,SSE,155,0.0,0.0,67,0.00,,---,0.16,VWS V14.01,2013-11-03 22:24:00,
2013-11-03 16:25:00,47.0,36.6,30.15,SSE,155,0.0,1.0,67,0.00,,---,0.16,VWS V14.01,2013-11-03 22:25:00,
2013-11-03 16:29:00,46.8,36.8,30.15,SSE,155,0.0,0.0,68,0.00,,---,0.16,VWS V14.01,2013-11-03 22:29:00,
2013-11-03 16:30:00,46.7,36.7,30.15,SSE,155,0.0,0.0,68,0.00,,---,0.16,VWS V14.01,2013-11-03 22:30:00,
2013-11-03 16:31:00,46.5,36.5,30.15,SSE,155,0.0,0.0,68,0.00,,---,0.16,VWS V14.01,2013-11-03 22:31:00,
2013-11-03 16:32:00,46.5,36.5,30.15,SSE,155,0.0,0.0,68,0.00,,---,0.16,VWS V14.01,2013-11-03 22:32:00,
2013-11-03 16:33:00,46.4,36.8,30.15,SSE,155,0.0,0.0,69,0.00,,---,0.16,VWS V14.01,2013-11-03 22:33:00,
2013-11-03 16:35:00,46.4,36.8,30.15,SSE,155,0.0,0.0,69,0.00,,---,0.16,VWS V14.01,2013-11-03 22:35:00,
2013-11-03 16:36:00,46.2,36.6,30.15,SSE,155,0.0,0.0,69,0.00,,---,0.16,VWS V14.01,2013-11-03 22:36:00,
2013-11-03 16:37:00,46.2,36.6,30.15,SSE,155,0.0,0.0,69,0.00,,---,0.16,VWS V14.01,2013-11-03 22:37:00,
2013-11-03 16:39:00,46.1,36.5,30.15,SSE,155,0.0,0.0,69,0.00,,---,0.16,VWS V14.01,2013-11-03 22:39:00,
2013-11-03 16:40:00,46.1,36.9,30.15,SSE,155,0.0,0.0,70,0.00,,---,0.16,VWS V14.01,2013-11-03 22:40:00,
2013-11-03 16:41:00,46.0,36.8,30.15,SSE,155,0.0,0.0,70,0.00,,---,0.16,VWS V14.01,2013-11-03 22:41:00,
2013-11-03 16:42:00,46.0,36.8,30.15,SSE,155,0.0,0.0,70,0.00,,---,0.16,VWS V14.01,2013-11-03 22:42:00,
2013-11-03 16:44:00,45.8,36.6,30.16,SSE,155,0.0,0.0,70,0.00,,---,0.16,VWS V14.01,2013-11-03 22:44:00,
2013-11-03 16:45:00,45.7,36.5,30.16,SSE,155,0.0,0.0,70,0.00,,---,0.16,VWS V14.01,2013-11-03 22:45:00,
2013-11-03 16:47:00,45.7,36.8,30.16,SSE,155,0.0,0.0,71,0.00,,---,0.16,VWS V14.01,2013-11-03 22:47:00,
2013-11-03 16:48:00,45.5,36.7,30.16,SSE,155,0.0,0.0,71,0.00,,---,0.16,VWS V14.01,2013-11-03 22:48:00,
2013-11-03 16:51:00,45.4,36.6,30.16,SSE,155,0.0,0.0,71,0.00,,---,0.16,VWS V14.01,2013-11-03 22:51:00,
2013-11-03 16:52:00,45.2,36.4,30.16,SSE,155,0.0,0.0,71,0.00,,---,0.16,VWS V14.01,2013-11-03 22:52:00,
2013-11-03 16:53:00,45.2,36.4,30.16,SSE,155,0.0,0.0,71,0.00,,---,0.16,VWS V14.01,2013-11-03 22:53:00,
2013-11-03 16:56:00,45.1,36.6,30.16,SSE,155,0.0,0.0,72,0.00,,---,0.16,VWS V14.01,2013-11-03 22:56:00,
2013-11-03 16:57:00,44.9,36.4,30.16,SSE,155,0.0,0.0,72,0.00,,---,0.16,VWS V14.01,2013-11-03 22:57:00,
2013-11-03 16:58:00,44.8,36.7,30.16,SSE,155,0.0,0.0,73,0.00,,---,0.16,VWS V14.01,2013-11-03 22:58:00,
2013-11-03 16:59:00,44.8,36.7,30.16,SSE,155,0.0,0.0,73,0.00,,---,0.16,VWS V14.01,2013-11-03 22:59:00,
2013-11-03 17:01:00,44.6,36.5,30.16,SSE,155,0.0,0.0,73,0.00,,---,0.16,VWS V14.01,2013-11-03 23:01:00,
2013-11-03 17:02:00,44.5,36.7,30.16,SSE,155,0.0,0.0,74,0.00,,---,0.16,VWS V14.01,2013-11-03 23:02:00,
2013-11-03 17:03:00,44.5,36.7,30.16,SSE,155,0.0,0.0,74,0.00,,---,0.16,VWS V14.01,2013-11-03 23:03:00,
2013-11-03 17:05:00,44.3,36.5,30.16,SSE,155,0.0,0.0,74,0.00,,---,0.16,VWS V14.01,2013-11-03 23:05:00,
2013-11-03 17:06:00,44.2,36.5,30.16,SSE,155,0.0,0.0,74,0.00,,---,0.16,VWS V14.01,2013-11-03 23:06:00,
2013-11-03 17:07:00,44.2,36.5,30.16,SSE,155,0.0,0.0,74,0.00,,---,0.16,VWS V14.01,2013-11-03 23:07:00,
2013-11-03 17:10:00,44.1,36.7,30.16,SSE,155,0.0,0.0,75,0.00,,---,0.16,VWS V14.01,2013-11-03 23:10:00,
2013-11-03 17:11:00,43.9,36.5,30.16,SSE,155,0.0,0.0,75,0.00,,---,0.16,VWS V14.01,2013-11-03 23:11:00,
2013-11-03 17:12:00,43.9,36.5,30.16,SSE,155,0.0,0.0,75,0.00,,---,0.16,VWS V14.01,2013-11-03 23:12:00,
2013-11-03 17:15:00,43.6,36.5,30.17,SSE,155,0.0,0.0,76,0.00,,---,0.16,VWS V14.01,2013-11-03 23:15:00,
2013-11-03 17:16:00,43.6,36.5,30.17,SSE,155,0.0,0.0,76,0.00,,---,0.16,VWS V14.01,2013-11-03 23:16:00,
2013-11-03 17:17:00,43.6,36.5,30.17,SSE,155,0.0,0.0,76,0.00,,---,0.16,VWS V14.01,2013-11-03 23:17:00,
2013-11-03 17:19:00,43.5,36.8,30.17,SSE,155,0.0,0.0,77,0.00,,---,0.16,VWS V14.01,2013-11-03 23:19:00,
2013-11-03 17:20:00,43.5,36.8,30.17,SSE,155,0.0,0.0,77,0.00,,---,0.16,VWS V14.01,2013-11-03 23:20:00,
2013-11-03 17:21:00,43.3,36.6,30.17,SSE,155,0.0,0.0,77,0.00,,---,0.16,VWS V14.01,2013-11-03 23:21:00,
2013-11-03 17:23:00,43.3,36.6,30.17,SSE,155,0.0,0.0,77,0.00,,---,0.16,VWS V14.01,2013-11-03 23:23:00,
2013-11-03 17:25:00,43.2,36.5,30.17,SSE,155,0.0,0.0,77,0.00,,---,0.16,VWS V14.01,2013-11-03 23:25:00,
2013-11-03 17:28:00,43.1,36.7,30.17,SSE,155,0.0,0.0,78,0.00,,---,0.16,VWS V14.01,2013-11-03 23:28:00,
2013-11-03 17:29:00,43.1,36.7,30.17,SSE,155,0.0,0.0,78,0.00,,---,0.16,VWS V14.01,2013-11-03 23:29:00,
2013-11-03 17:30:00,42.9,36.5,30.17,SSE,155,0.0,0.0,78,0.00,,---,0.16,VWS V14.01,2013-11-03 23:30:00,
2013-11-03 17:31:00,42.9,36.8,30.17,SSE,155,0.0,0.0,79,0.00,,---,0.16,VWS V14.01,2013-11-03 23:31:00,
2013-11-03 17:32:00,42.9,36.8,30.17,SSE,155,0.0,0.0,79,0.00,,---,0.16,VWS V14.01,2013-11-03 23:32:00,
2013-11-03 17:34:00,42.8,36.8,30.17,SSE,155,0.0,0.0,79,0.00,,---,0.16,VWS V14.01,2013-11-03 23:34:00,
2013-11-03 17:35:00,42.8,36.8,30.17,SSE,155,0.0,0.0,79,0.00,,---,0.16,VWS V14.01,2013-11-03 23:35:00,
2013-11-03 17:38:00,42.6,36.9,30.17,SSE,155,0.0,0.0,80,0.00,,---,0.16,VWS V14.01,2013-11-03 23:38:00,
2013-11-03 17:40:00,42.6,36.9,30.17,SSE,155,0.0,0.0,80,0.00,,---,0.16,VWS V14.01,2013-11-03 23:40:00,
2013-11-03 17:43:00,42.5,36.8,30.17,SSE,155,0.0,0.0,80,0.00,,---,0.16,VWS V14.01,2013-11-03 23:43:00,
2013-11-03 17:44:00,42.5,37.1,30.17,SSE,155,0.0,0.0,81,0.00,,---,0.16,VWS V14.01,2013-11-03 23:44:00,
2013-11-03 17:45:00,42.3,36.9,30.17,SSE,155,0.0,0.0,81,0.00,,---,0.16,VWS V14.01,2013-11-03 23:45:00,
2013-11-03 17:47:00,42.3,36.9,30.17,SSE,155,0.0,0.0,81,0.00,,---,0.16,VWS V14.01,2013-11-03 23:47:00,
2013-11-03 17:49:00,42.2,36.8,30.17,SSE,155,0.0,0.0,81,0.00,,---,0.16,VWS V14.01,2013-11-03 23:49:00,
2013-11-03 17:50:00,42.2,36.8,30.17,SSE,155,0.0,0.0,81,0.00,,---,0.16,VWS V14.01,2013-11-03 23:50:00,
2013-11-03 17:51:00,42.2,36.8,30.17,SSE,155,0.0,0.0,81,0.00,,---,0.16,VWS V14.01,2013-11-03 23:51:00,
2013-11-03 17:52:00,42.2,37.1,30.17,SSE,155,0.0,0.0,82,0.00,,---,0.16,VWS V14.01,2013-11-03 23:52:00,
2013-11-03 17:53:00,42.1,37.0,30.17,SSE,155,0.0,0.0,82,0.00,,---,0.16,VWS V14.01,2013-11-03 23:53:00,
2013-11-03 17:55:00,42.1,37.0,30.17,SSE,155,0.0,0.0,82,0.00,,---,0.16,VWS V14.01,2013-11-03 23:55:00,
2013-11-03 17:57:00,41.9,37.1,30.17,SSE,155,0.0,0.0,83,0.00,,---,0.16,VWS V14.01,2013-11-03 23:57:00,
2013-11-03 17:58:00,41.9,37.1,30.17,SSE,155,0.0,0.0,83,0.00,,---,0.16,VWS V14.01,2013-11-03 23:58:00,
2013-11-03 18:00:00,41.8,37.0,30.17,SSE,155,0.0,0.0,83,0.00,,---,0.16,VWS V14.01,2013-11-04 00:00:00,
2013-11-03 18:01:00,41.8,37.0,30.17,SSE,155,0.0,0.0,83,0.00,,---,0.16,VWS V14.01,2013-11-04 00:01:00,
2013-11-03 18:04:00,41.6,36.8,30.17,SSE,155,0.0,0.0,83,0.00,,---,0.16,VWS V14.01,2013-11-04 00:04:00,
2013-11-03 18:05:00,41.6,36.8,30.17,South,170,2.0,3.0,83,0.00,,---,0.16,VWS V14.01,2013-11-04 00:05:00,
2013-11-03 18:08:00,41.6,36.8,30.17,South,170,0.0,0.0,83,0.00,,---,0.16,VWS V14.01,2013-11-04 00:08:00,
2013-11-03 18:09:00,41.6,36.8,30.17,South,170,0.0,0.0,83,0.00,,---,0.16,VWS V14.01,2013-11-04 00:09:00,
2013-11-03 18:11:00,41.6,36.8,30.17,South,170,0.0,0.0,83,0.00,,---,0.16,VWS V14.01,2013-11-04 00:11:00,
2013-11-03 18:12:00,41.6,36.8,30.17,South,170,0.0,0.0,83,0.00,,---,0.16,VWS V14.01,2013-11-04 00:12:00,
2013-11-03 18:13:00,41.6,36.8,30.17,South,170,0.0,0.0,83,0.00,,---,0.16,VWS V14.01,2013-11-04 00:13:00,
2013-11-03 18:14:00,41.6,36.8,30.17,South,170,0.0,1.0,83,0.00,,---,0.16,VWS V14.01,2013-11-04 00:14:00,
2013-11-03 18:15:00,41.6,37.1,30.17,South,170,0.0,0.0,84,0.00,,---,0.16,VWS V14.01,2013-11-04 00:15:00,
2013-11-03 18:16:00,41.6,36.8,30.17,South,170,0.0,0.0,83,0.00,,---,0.16,VWS V14.01,2013-11-04 00:16:00,
2013-11-03 18:17:00,41.6,36.8,30.17,South,170,0.0,0.0,83,0.00,,---,0.16,VWS V14.01,2013-11-04 00:17:00,
2013-11-03 18:19:00,41.6,36.8,30.17,South,170,0.0,0.0,83,0.00,,---,0.16,VWS V14.01,2013-11-04 00:19:00,
2013-11-03 18:20:00,41.6,36.8,30.17,South,170,0.0,0.0,83,0.00,,---,0.16,VWS V14.01,2013-11-04 00:20:00,
2013-11-03 18:21:00,41.6,36.8,30.17,South,170,0.0,0.0,83,0.00,,---,0.16,VWS V14.01,2013-11-04 00:21:00,
2013-11-03 18:22:00,41.6,36.8,30.17,South,170,0.0,0.0,83,0.00,,---,0.16,VWS V14.01,2013-11-04 00:22:00,
2013-11-03 18:24:00,41.6,36.8,30.17,South,170,0.0,0.0,83,0.00,,---,0.16,VWS V14.01,2013-11-04 00:24:00,
2013-11-03 18:25:00,41.6,36.8,30.17,South,170,0.0,0.0,83,0.00,,---,0.16,VWS V14.01,2013-11-04 00:25:00,
2013-11-03 18:26:00,41.6,36.8,30.17,South,170,0.0,0.0,83,0.00,,---,0.16,VWS V14.01,2013-11-04 00:26:00,
2013-11-03 18:30:00,41.6,36.8,30.17,South,170,0.0,0.0,83,0.00,,---,0.16,VWS V14.01,2013-11-04 00:30:00,
2013-11-03 18:32:00,41.6,36.8,30.17,South,170,0.0,0.0,83,0.00,,---,0.16,VWS V14.01,2013-11-04 00:32:00,
2013-11-03 18:33:00,41.5,36.7,30.17,South,170,0.0,0.0,83,0.00,,---,0.16,VWS V14.01,2013-11-04 00:33:00,
2013-11-03 18:35:00,41.5,36.7,30.17,South,170,0.0,0.0,83,0.00,,---,0.16,VWS V14.01,2013-11-04 00:35:00,
2013-11-03 18:37:00,41.5,36.7,30.17,South,170,0.0,0.0,83,0.00,,---,0.16,VWS V14.01,2013-11-04 00:37:00,
2013-11-03 18:39:00,41.3,36.5,30.17,South,170,0.0,0.0,83,0.00,,---,0.16,VWS V14.01,2013-11-04 00:39:00,
2013-11-03 18:40:00,41.3,36.5,30.17,South,170,0.0,0.0,83,0.00,,---,0.16,VWS V14.01,2013-11-04 00:40:00,
2013-11-03 18:41:00,41.2,36.4,30.17,South,170,0.0,0.0,83,0.00,,---,0.16,VWS V14.01,2013-11-04 00:41:00,
2013-11-03 18:44:00,41.1,36.3,30.17,South,170,0.0,0.0,83,0.00,,---,0.16,VWS V14.01,2013-11-04 00:44:00,
2013-11-03 18:45:00,41.1,36.3,30.17,South,170,0.0,0.0,83,0.00,,---,0.16,VWS V14.01,2013-11-04 00:45:00,
2013-11-03 18:46:00,41.1,36.3,30.17,South,170,0.0,0.0,83,0.00,,---,0.16,VWS V14.01,2013-11-04 00:46:00,
2013-11-03 18:48:00,41.1,36.3,30.17,South,170,0.0,0.0,83,0.00,,---,0.16,VWS V14.01,2013-11-04 00:48:00,
2013-11-03 18:49:00,40.9,36.1,30.17,South,170,0.0,0.0,83,0.00,,---,0.16,VWS V14.01,2013-11-04 00:49:00,
2013-11-03 18:50:00,40.9,36.5,30.17,South,170,0.0,0.0,84,0.00,,---,0.16,VWS V14.01,2013-11-04 00:50:00,
2013-11-03 18:51:00,40.9,36.5,30.17,South,170,0.0,0.0,84,0.00,,---,0.16,VWS V14.01,2013-11-04 00:51:00,
2013-11-03 18:53:00,40.9,36.5,30.17,South,170,0.0,0.0,84,0.00,,---,0.16,VWS V14.01,2013-11-04 00:53:00,
2013-11-03 18:54:00,40.9,36.5,30.17,South,170,0.0,0.0,84,0.00,,---,0.16,VWS V14.01,2013-11-04 00:54:00,
2013-11-03 18:56:00,40.9,36.5,30.17,South,170,0.0,0.0,84,0.00,,---,0.16,VWS V14.01,2013-11-04 00:56:00,
2013-11-03 18:59:00,40.9,36.5,30.17,South,170,0.0,0.0,84,0.00,,---,0.16,VWS V14.01,2013-11-04 00:59:00,
2013-11-03 19:01:00,40.9,36.5,30.17,South,170,0.0,0.0,84,0.00,,---,0.16,VWS V14.01,2013-11-04 01:01:00,
2013-11-03 19:03:00,40.9,36.5,30.17,South,170,0.0,0.0,84,0.00,,---,0.16,VWS V14.01,2013-11-04 01:03:00,
2013-11-03 19:04:00,40.8,36.3,30.17,South,170,0.0,0.0,84,0.00,,---,0.16,VWS V14.01,2013-11-04 01:04:00,
2013-11-03 19:05:00,40.8,36.3,30.17,South,170,0.0,0.0,84,0.00,,---,0.16,VWS V14.01,2013-11-04 01:05:00,
2013-11-03 19:07:00,40.9,36.8,30.17,South,170,0.0,0.0,85,0.00,,---,0.16,VWS V14.01,2013-11-04 01:07:00,
2013-11-03 19:08:00,40.9,36.8,30.17,South,170,0.0,0.0,85,0.00,,---,0.16,VWS V14.01,2013-11-04 01:08:00,
2013-11-03 19:10:00,40.9,36.8,30.17,South,170,0.0,0.0,85,0.00,,---,0.16,VWS V14.01,2013-11-04 01:10:00,
2013-11-03 19:11:00,40.9,36.8,30.17,South,170,0.0,0.0,85,0.00,,---,0.16,VWS V14.01,2013-11-04 01:11:00,
2013-11-03 19:13:00,40.9,36.8,30.17,South,172,0.0,0.0,85,0.00,,---,0.16,VWS V14.01,2013-11-04 01:13:00,
2013-11-03 19:14:00,40.9,36.8,30.17,South,172,0.0,0.0,85,0.00,,---,0.16,VWS V14.01,2013-11-04 01:14:00,
2013-11-03 19:16:00,40.9,36.8,30.17,South,172,0.0,0.0,85,0.00,,---,0.16,VWS V14.01,2013-11-04 01:16:00,
2013-11-03 19:17:00,40.9,36.8,30.17,South,172,0.0,0.0,85,0.00,,---,0.16,VWS V14.01,2013-11-04 01:17:00,
2013-11-03 19:18:00,40.9,36.8,30.17,South,172,0.0,0.0,85,0.00,,---,0.16,VWS V14.01,2013-11-04 01:18:00,
2013-11-03 19:20:00,40.8,36.7,30.17,South,172,0.0,0.0,85,0.00,,---,0.16,VWS V14.01,2013-11-04 01:20:00,
2013-11-03 19:21:00,40.8,36.7,30.17,South,172,0.0,0.0,85,0.00,,---,0.16,VWS V14.01,2013-11-04 01:21:00,
2013-11-03 19:24:00,40.8,36.7,30.17,SSE,156,0.0,0.0,85,0.00,,---,0.16,VWS V14.01,2013-11-04 01:24:00,
2013-11-03 19:25:00,40.8,36.7,30.17,SSE,156,0.0,0.0,85,0.00,,---,0.16,VWS V14.01,2013-11-04 01:25:00,
2013-11-03 19:26:00,40.8,36.7,30.17,SSE,156,0.0,0.0,85,0.00,,---,0.16,VWS V14.01,2013-11-04 01:26:00,
2013-11-03 19:30:00,40.8,36.9,30.18,SSE,156,0.0,0.0,86,0.00,,---,0.16,VWS V14.01,2013-11-04 01:30:00,
2013-11-03 19:31:00,40.8,36.9,30.18,SSE,156,0.0,0.0,86,0.00,,---,0.16,VWS V14.01,2013-11-04 01:31:00,
2013-11-03 19:32:00,40.8,36.9,30.18,SSE,156,0.0,0.0,86,0.00,,---,0.16,VWS V14.01,2013-11-04 01:32:00,
2013-11-03 19:33:00,40.8,36.9,30.18,South,186,0.0,2.0,86,0.00,,---,0.16,VWS V14.01,2013-11-04 01:33:00,
2013-11-03 19:35:00,40.8,36.9,30.18,South,181,1.0,1.0,86,0.00,,---,0.16,VWS V14.01,2013-11-04 01:35:00,
2013-11-03 19:37:00,40.8,36.9,30.18,South,188,0.0,0.0,86,0.00,,---,0.16,VWS V14.01,2013-11-04 01:37:00,
2013-11-03 19:38:00,40.8,36.9,30.18,South,188,0.0,0.0,86,0.00,,---,0.16,VWS V14.01,2013-11-04 01:38:00,
2013-11-03 19:39:00,40.8,36.9,30.18,SE,138,0.0,3.0,86,0.00,,---,0.16,VWS V14.01,2013-11-04 01:39:00,
2013-11-03 19:41:00,40.9,37.0,30.18,SE,138,0.0,0.0,86,0.00,,---,0.16,VWS V14.01,2013-11-04 01:41:00,
2013-11-03 19:42:00,40.9,37.0,30.18,SE,138,0.0,0.0,86,0.00,,---,0.16,VWS V14.01,2013-11-04 01:42:00,
2013-11-03 19:43:00,41.1,37.2,30.18,SE,138,0.0,3.0,86,0.00,,---,0.16,VWS V14.01,2013-11-04 01:43:00,
2013-11-03 19:45:00,41.1,37.2,30.18,ESE,122,0.0,2.0,86,0.00,,---,0.16,VWS V14.01,2013-11-04 01:45:00,
2013-11-03 19:47:00,41.1,37.2,30.18,SSE,167,0.0,0.0,86,0.00,,---,0.16,VWS V14.01,2013-11-04 01:47:00,
2013-11-03 19:48:00,41.2,37.3,30.18,West,270,0.0,0.0,86,0.00,,---,0.16,VWS V14.01,2013-11-04 01:48:00,
2013-11-03 19:51:00,41.2,37.3,30.18,SE,146,0.0,4.0,86,0.00,,---,0.16,VWS V14.01,2013-11-04 01:51:00,
2013-11-03 19:52:00,41.2,37.3,30.18,SE,146,0.0,1.0,86,0.00,,---,0.16,VWS V14.01,2013-11-04 01:52:00,
2013-11-03 19:53:00,41.2,37.3,30.18,West,272,1.0,2.0,86,0.00,,---,0.16,VWS V14.01,2013-11-04 01:53:00,
2013-11-03 19:54:00,41.2,37.3,30.18,SSE,167,0.0,2.0,86,0.00,,---,0.16,VWS V14.01,2013-11-04 01:54:00,
2013-11-03 19:57:00,41.3,37.4,30.18,SE,138,0.0,0.0,86,0.00,,---,0.16,VWS V14.01,2013-11-04 01:57:00,
2013-11-03 19:58:00,41.3,37.4,30.18,SSE,162,2.0,2.0,86,0.00,,---,0.16,VWS V14.01,2013-11-04 01:58:00,
2013-11-03 19:59:00,41.3,37.4,30.17,SSE,160,0.0,2.0,86,0.00,,---,0.16,VWS V14.01,2013-11-04 01:59:00,
2013-11-03 20:02:00,41.3,37.4,30.17,SE,143,0.0,2.0,86,0.00,,---,0.16,VWS V14.01,2013-11-04 02:02:00,
2013-11-03 20:04:00,41.3,37.4,30.17,SSE,162,0.0,0.0,86,0.00,,---,0.16,VWS V14.01,2013-11-04 02:04:00,
2013-11-03 20:05:00,41.3,37.4,30.17,SSE,162,0.0,0.0,86,0.00,,---,0.16,VWS V14.01,2013-11-04 02:05:00,
2013-11-03 20:07:00,41.2,37.3,30.17,SSE,160,1.0,2.0,86,0.00,,---,0.16,VWS V14.01,2013-11-04 02:07:00,
2013-11-03 20:08:00,41.2,37.3,30.17,SSE,162,0.0,1.0,86,0.00,,---,0.16,VWS V14.01,2013-11-04 02:08:00,
2013-11-03 20:09:00,41.2,37.3,30.17,SSE,168,0.0,0.0,86,0.00,,---,0.16,VWS V14.01,2013-11-04 02:09:00,
2013-11-03 20:10:00,41.2,37.3,30.17,South,190,3.0,3.0,86,0.00,,---,0.16,VWS V14.01,2013-11-04 02:10:00,
2013-11-03 20:12:00,41.2,37.3,30.17,South,183,0.0,3.0,86,0.00,,---,0.16,VWS V14.01,2013-11-04 02:12:00,
2013-11-03 20:13:00,41.2,37.3,30.17,SE,143,0.0,1.0,86,0.00,,---,0.16,VWS V14.01,2013-11-04 02:13:00,
2013-11-03 20:15:00,41.2,37.3,30.18,ESE,113,0.0,3.0,86,0.00,,---,0.16,VWS V14.01,2013-11-04 02:15:00,
2013-11-03 20:16:00,41.2,37.3,30.18,SSE,162,0.0,1.0,86,0.00,,---,0.16,VWS V14.01,2013-11-04 02:16:00,
2013-11-03 20:17:00,41.2,37.3,30.18,SSE,162,0.0,0.0,86,0.00,,---,0.16,VWS V14.01,2013-11-04 02:17:00,
2013-11-03 20:18:00,41.2,37.3,30.18,SSE,159,0.0,1.0,86,0.00,,---,0.16,VWS V14.01,2013-11-04 02:18:00,
2013-11-03 20:19:00,41.2,37.3,30.18,SSE,160,1.0,1.0,86,0.00,,---,0.16,VWS V14.01,2013-11-04 02:19:00,
2013-11-03 20:20:00,41.1,37.2,30.18,SSE,159,0.0,1.0,86,0.00,,---,0.16,VWS V14.01,2013-11-04 02:20:00,
2013-11-03 20:21:00,41.1,37.2,30.18,SSE,159,0.0,0.0,86,0.00,,---,0.16,VWS V14.01,2013-11-04 02:21:00,
2013-11-03 20:24:00,41.1,37.2,30.18,SSE,159,0.0,0.0,86,0.00,,---,0.16,VWS V14.01,2013-11-04 02:24:00,
2013-11-03 20:25:00,41.1,37.2,30.18,SSE,159,0.0,0.0,86,0.00,,---,0.16,VWS V14.01,2013-11-04 02:25:00,
2013-11-03 20:26:00,41.1,37.2,30.18,SSE,159,0.0,0.0,86,0.00,,---,0.16,VWS V14.01,2013-11-04 02:26:00,
2013-11-03 20:27:00,41.1,37.2,30.18,SSE,159,0.0,0.0,86,0.00,,---,0.16,VWS V14.01,2013-11-04 02:27:00,
2013-11-03 20:32:00,41.1,37.2,30.18,SSE,158,0.0,0.0,86,0.00,,---,0.16,VWS V14.01,2013-11-04 02:32:00,
2013-11-03 20:33:00,40.9,37.3,30.18,South,182,1.0,1.0,87,0.00,,---,0.16,VWS V14.01,2013-11-04 02:33:00,
2013-11-03 20:34:00,40.9,37.3,30.18,South,171,1.0,2.0,87,0.00,,---,0.16,VWS V14.01,2013-11-04 02:34:00,
2013-11-03 20:35:00,40.9,37.3,30.18,SSE,150,1.0,2.0,87,0.00,,---,0.16,VWS V14.01,2013-11-04 02:35:00,
2013-11-03 20:36:00,40.9,37.3,30.18,SSE,150,0.0,0.0,87,0.00,,---,0.16,VWS V14.01,2013-11-04 02:36:00,
2013-11-03 20:38:00,40.9,37.3,30.18,South,175,0.0,2.0,87,0.00,,---,0.16,VWS V14.01,2013-11-04 02:38:00,
2013-11-03 20:39:00,40.9,37.3,30.18,SE,146,2.0,2.0,87,0.00,,---,0.16,VWS V14.01,2013-11-04 02:39:00,
2013-11-03 20:40:00,40.9,37.3,30.18,South,191,1.0,1.0,87,0.00,,---,0.16,VWS V14.01,2013-11-04 02:40:00,
2013-11-03 20:41:00,40.9,37.3,30.18,South,191,0.0,1.0,87,0.00,,---,0.16,VWS V14.01,2013-11-04 02:41:00,
2013-11-03 20:42:00,40.8,37.2,30.18,SSE,165,0.0,0.0,87,0.00,,---,0.16,VWS V14.01,2013-11-04 02:42:00,
2013-11-03 20:43:00,40.8,37.2,30.18,West,281,1.0,1.0,87,0.00,,---,0.16,VWS V14.01,2013-11-04 02:43:00,
2013-11-03 20:45:00,40.8,37.2,30.18,SSE,149,0.0,0.0,87,0.00,,---,0.16,VWS V14.01,2013-11-04 02:45:00,
2013-11-03 20:48:00,40.8,37.2,30.18,South,174,0.0,0.0,87,0.00,,---,0.16,VWS V14.01,2013-11-04 02:48:00,
2013-11-03 20:49:00,40.8,37.2,30.18,South,172,2.0,2.0,87,0.00,,---,0.16,VWS V14.01,2013-11-04 02:49:00,
2013-11-03 20:50:00,40.8,37.2,30.18,SE,141,0.0,0.0,87,0.00,,---,0.16,VWS V14.01,2013-11-04 02:50:00,
2013-11-03 20:51:00,40.8,37.2,30.18,SSE,149,2.0,2.0,87,0.00,,---,0.16,VWS V14.01,2013-11-04 02:51:00,
2013-11-03 20:52:00,40.8,37.2,30.18,SW,225,0.0,2.0,87,0.00,,---,0.16,VWS V14.01,2013-11-04 02:52:00,
2013-11-03 20:56:00,40.8,37.2,30.18,WSW,240,0.0,2.0,87,0.00,,---,0.16,VWS V14.01,2013-11-04 02:56:00,
2013-11-03 20:57:00,40.8,37.2,30.18,WSW,239,0.0,2.0,87,0.00,,---,0.16,VWS V14.01,2013-11-04 02:57:00,
2013-11-03 20:58:00,40.8,37.2,30.18,WSW,240,0.0,0.0,87,0.00,,---,0.16,VWS V14.01,2013-11-04 02:58:00,
2013-11-03 20:59:00,40.8,37.2,30.18,South,169,0.0,1.0,87,0.00,,---,0.16,VWS V14.01,2013-11-04 02:59:00,
2013-11-03 21:00:00,40.8,37.2,30.18,South,182,3.0,3.0,87,0.00,,---,0.16,VWS V14.01,2013-11-04 03:00:00,
2013-11-03 21:01:00,40.8,37.2,30.18,NNW,336,0.0,0.0,87,0.00,,---,0.16,VWS V14.01,2013-11-04 03:01:00,
2013-11-03 21:02:00,40.8,37.2,30.18,SSE,149,0.0,0.0,87,0.00,,---,0.16,VWS V14.01,2013-11-04 03:02:00,
2013-11-03 21:05:00,40.8,37.2,30.18,ESE,109,1.0,2.0,87,0.00,,---,0.16,VWS V14.01,2013-11-04 03:05:00,
2013-11-03 21:06:00,40.8,37.2,30.18,SSE,160,0.0,2.0,87,0.00,,---,0.16,VWS V14.01,2013-11-04 03:06:00,
2013-11-03 21:07:00,40.8,37.2,30.18,SSE,160,0.0,0.0,87,0.00,,---,0.16,VWS V14.01,2013-11-04 03:07:00,
2013-11-03 21:08:00,40.8,37.2,30.18,South,179,1.0,1.0,87,0.00,,---,0.16,VWS V14.01,2013-11-04 03:08:00,
2013-11-03 21:10:00,40.8,37.2,30.18,SSE,167,0.0,1.0,87,0.00,,---,0.16,VWS V14.01,2013-11-04 03:10:00,
2013-11-03 21:11:00,40.8,37.2,30.18,SSE,160,0.0,1.0,87,0.00,,---,0.16,VWS V14.01,2013-11-04 03:11:00,
2013-11-03 21:15:00,40.8,37.2,30.18,South,170,3.0,3.0,87,0.00,,---,0.16,VWS V14.01,2013-11-04 03:15:00,
2013-11-03 21:16:00,40.8,37.2,30.18,ESE,122,0.0,3.0,87,0.00,,---,0.16,VWS V14.01,2013-11-04 03:16:00,
2013-11-03 21:17:00,40.8,37.2,30.18,SE,131,0.0,2.0,87,0.00,,---,0.16,VWS V14.01,2013-11-04 03:17:00,
2013-11-03 21:18:00,40.8,37.2,30.18,SE,131,0.0,2.0,87,0.00,,---,0.16,VWS V14.01,2013-11-04 03:18:00,
2013-11-03 21:21:00,40.8,37.2,30.18,South,191,0.0,0.0,87,0.00,,---,0.16,VWS V14.01,2013-11-04 03:21:00,
2013-11-03 21:23:00,40.8,37.2,30.18,SE,134,0.0,3.0,87,0.00,,---,0.16,VWS V14.01,2013-11-04 03:23:00,
2013-11-03 21:25:00,40.8,37.2,30.18,SSE,166,2.0,3.0,87,0.00,,---,0.16,VWS V14.01,2013-11-04 03:25:00,
2013-11-03 21:26:00,40.8,37.2,30.18,SSE,148,1.0,2.0,87,0.00,,---,0.16,VWS V14.01,2013-11-04 03:26:00,
2013-11-03 21:27:00,40.8,37.2,30.18,SSE,148,0.0,2.0,87,0.00,,---,0.16,VWS V14.01,2013-11-04 03:27:00,
2013-11-03 21:29:00,40.8,37.2,30.18,WSW,246,0.0,1.0,87,0.00,,---,0.16,VWS V14.01,2013-11-04 03:29:00,
2013-11-03 21:31:00,40.9,37.3,30.18,SSE,155,0.0,0.0,87,0.00,,---,0.16,VWS V14.01,2013-11-04 03:31:00,
2013-11-03 21:34:00,40.8,37.2,30.18,SE,141,1.0,1.0,87,0.00,,---,0.16,VWS V14.01,2013-11-04 03:34:00,
2013-11-03 21:35:00,40.8,37.2,30.18,SE,141,0.0,2.0,87,0.00,,---,0.16,VWS V14.01,2013-11-04 03:35:00,
2013-11-03 21:36:00,40.8,37.2,30.18,SSW,203,1.0,3.0,87,0.00,,---,0.16,VWS V14.01,2013-11-04 03:36:00,
2013-11-03 21:37:00,40.8,37.2,30.18,ESE,123,0.0,3.0,87,0.00,,---,0.16,VWS V14.01,2013-11-04 03:37:00,
2013-11-03 21:40:00,40.8,37.2,30.18,South,176,2.0,2.0,87,0.00,,---,0.16,VWS V14.01,2013-11-04 03:40:00,
2013-11-03 21:42:00,40.8,37.2,30.18,SSE,153,0.0,0.0,87,0.00,,---,0.16,VWS V14.01,2013-11-04 03:42:00,
2013-11-03 21:43:00,40.8,37.2,30.18,SE,124,0.0,2.0,87,0.00,,---,0.16,VWS V14.01,2013-11-04 03:43:00,
2013-11-03 21:44:00,40.8,37.2,30.18,ESE,122,1.0,3.0,87,0.00,,---,0.16,VWS V14.01,2013-11-04 03:44:00,
2013-11-03 21:45:00,40.8,37.2,30.18,SE,140,2.0,3.0,87,0.00,,---,0.16,VWS V14.01,2013-11-04 03:45:00,
2013-11-03 21:46:00,40.8,37.2,30.18,SE,124,3.0,4.0,87,0.00,,---,0.16,VWS V14.01,2013-11-04 03:46:00,
2013-11-03 21:47:00,40.8,37.2,30.18,SE,137,1.0,3.0,87,0.00,,---,0.16,VWS V14.01,2013-11-04 03:47:00,
2013-11-03 21:49:00,40.8,37.2,30.18,SSE,148,2.0,2.0,87,0.00,,---,0.16,VWS V14.01,2013-11-04 03:49:00,
2013-11-03 21:51:00,40.8,37.2,30.18,South,178,2.0,2.0,87,0.00,,---,0.16,VWS V14.01,2013-11-04 03:51:00,
2013-11-03 21:52:00,40.8,37.2,30.18,SSW,200,1.0,1.0,87,0.00,,---,0.16,VWS V14.01,2013-11-04 03:52:00,
2013-11-03 21:54:00,40.8,37.2,30.18,SSE,164,1.0,2.0,87,0.00,,---,0.16,VWS V14.01,2013-11-04 03:54:00,
2013-11-03 21:55:00,40.8,37.2,30.18,North,353,0.0,1.0,87,0.00,,---,0.16,VWS V14.01,2013-11-04 03:55:00,
2013-11-03 21:56:00,40.8,37.2,30.18,SE,138,0.0,2.0,87,0.00,,---,0.16,VWS V14.01,2013-11-04 03:56:00,
2013-11-03 21:59:00,40.8,37.2,30.17,South,178,1.0,3.0,87,0.00,,---,0.16,VWS V14.01,2013-11-04 03:59:00,
2013-11-03 22:01:00,40.8,37.2,30.17,SSE,161,1.0,2.0,87,0.00,,---,0.16,VWS V14.01,2013-11-04 04:01:00,
2013-11-03 22:02:00,40.8,37.2,30.17,ESE,117,1.0,4.0,87,0.00,,---,0.16,VWS V14.01,2013-11-04 04:02:00,
2013-11-03 22:03:00,40.8,37.2,30.17,SSW,195,0.0,3.0,87,0.00,,---,0.16,VWS V14.01,2013-11-04 04:03:00,
2013-11-03 22:04:00,40.8,37.2,30.17,SSE,147,0.0,2.0,87,0.00,,---,0.16,VWS V14.01,2013-11-04 04:04:00,
2013-11-03 22:07:00,40.8,37.2,30.17,NW,316,1.0,2.0,87,0.00,,---,0.16,VWS V14.01,2013-11-04 04:07:00,
2013-11-03 22:08:00,40.8,37.2,30.17,SW,219,1.0,2.0,87,0.00,,---,0.16,VWS V14.01,2013-11-04 04:08:00,
2013-11-03 22:09:00,40.8,37.2,30.17,SE,132,1.0,3.0,87,0.00,,---,0.16,VWS V14.01,2013-11-04 04:09:00,
2013-11-03 22:11:00,40.8,37.2,30.17,South,169,0.0,1.0,87,0.00,,---,0.16,VWS V14.01,2013-11-04 04:11:00,
2013-11-03 22:13:00,40.8,37.2,30.17,South,181,3.0,4.0,87,0.00,,---,0.16,VWS V14.01,2013-11-04 04:13:00,
2013-11-03 22:14:00,40.8,37.2,30.17,NW,310,2.0,3.0,87,0.00,,---,0.16,VWS V14.01,2013-11-04 04:14:00,
2013-11-03 22:15:00,40.8,37.2,30.17,SE,146,1.0,2.0,87,0.00,,---,0.16,VWS V14.01,2013-11-04 04:15:00,
2013-11-03 22:16:00,40.8,37.2,30.17,SE,136,0.0,0.0,87,0.00,,---,0.16,VWS V14.01,2013-11-04 04:16:00,
2013-11-03 22:19:00,40.8,37.2,30.17,South,172,0.0,4.0,87,0.00,,---,0.16,VWS V14.01,2013-11-04 04:19:00,
2013-11-03 22:20:00,40.8,37.2,30.17,SSE,152,0.0,2.0,87,0.00,,---,0.16,VWS V14.01,2013-11-04 04:20:00,
2013-11-03 22:22:00,40.8,37.2,30.17,SE,142,3.0,6.0,87,0.00,,---,0.16,VWS V14.01,2013-11-04 04:22:00,
2013-11-03 22:23:00,40.8,37.2,30.17,SSE,159,1.0,3.0,87,0.00,,---,0.16,VWS V14.01,2013-11-04 04:23:00,
2013-11-03 22:24:00,40.8,37.2,30.17,SSE,151,0.0,3.0,87,0.00,,---,0.16,VWS V14.01,2013-11-04 04:24:00,
2013-11-03 22:28:00,40.8,37.2,30.17,SSE,163,0.0,3.0,87,0.00,,---,0.16,VWS V14.01,2013-11-04 04:28:00,
2013-11-03 22:29:00,40.8,37.2,30.16,SE,129,4.0,4.0,87,0.00,,---,0.16,VWS V14.01,2013-11-04 04:29:00,
2013-11-03 22:30:00,40.8,37.2,30.16,South,174,2.0,5.0,87,0.00,,---,0.16,VWS V14.01,2013-11-04 04:30:00,
2013-11-03 22:31:00,40.8,37.2,30.16,East,93,3.0,6.0,87,0.00,,---,0.16,VWS V14.01,2013-11-04 04:31:00,
2013-11-03 22:34:00,40.8,37.2,30.16,South,169,0.0,2.0,87,0.00,,---,0.16,VWS V14.01,2013-11-04 04:34:00,
2013-11-03 22:35:00,40.8,37.2,30.16,SSE,156,0.0,3.0,87,0.00,,---,0.16,VWS V14.01,2013-11-04 04:35:00,
2013-11-03 22:36:00,40.8,37.2,30.16,SE,137,2.0,2.0,87,0.00,,---,0.16,VWS V14.01,2013-11-04 04:36:00,
2013-11-03 22:38:00,40.8,37.2,30.16,South,178,1.0,1.0,87,0.00,,---,0.16,VWS V14.01,2013-11-04 04:38:00,
2013-11-03 22:40:00,40.6,37.0,30.16,SE,143,2.0,3.0,87,0.00,,---,0.16,VWS V14.01,2013-11-04 04:40:00,
2013-11-03 22:41:00,40.6,37.0,30.16,SE,140,3.0,4.0,87,0.00,,---,0.16,VWS V14.01,2013-11-04 04:41:00,
2013-11-03 22:43:00,40.6,37.0,30.16,SSE,155,4.0,9.0,87,0.00,,---,0.16,VWS V14.01,2013-11-04 04:43:00,
2013-11-03 22:44:00,40.6,37.0,30.17,SSE,159,1.0,4.0,87,0.00,,---,0.16,VWS V14.01,2013-11-04 04:44:00,
2013-11-03 22:46:00,40.6,37.0,30.17,SSE,158,1.0,1.0,87,0.00,,---,0.16,VWS V14.01,2013-11-04 04:46:00,
2013-11-03 22:49:00,40.6,37.0,30.17,SSE,157,0.0,1.0,87,0.00,,---,0.16,VWS V14.01,2013-11-04 04:49:00,
2013-11-03 22:50:00,40.6,37.0,30.17,SSW,206,3.0,3.0,87,0.00,,---,0.16,VWS V14.01,2013-11-04 04:50:00,
2013-11-03 22:51:00,40.6,37.0,30.17,SE,145,2.0,3.0,87,0.00,,---,0.16,VWS V14.01,2013-11-04 04:51:00,
2013-11-03 22:52:00,40.6,37.0,30.17,South,186,3.0,4.0,87,0.00,,---,0.16,VWS V14.01,2013-11-04 04:52:00,
2013-11-03 22:55:00,40.6,37.0,30.17,SSE,160,0.0,3.0,87,0.00,,---,0.16,VWS V14.01,2013-11-04 04:55:00,
2013-11-03 22:56:00,40.6,37.0,30.17,SSE,161,0.0,0.0,87,0.00,,---,0.16,VWS V14.01,2013-11-04 04:56:00,
2013-11-03 22:57:00,40.6,36.8,30.17,SSE,164,0.0,0.0,86,0.00,,---,0.16,VWS V14.01,2013-11-04 04:57:00,
2013-11-03 22:58:00,40.5,36.7,30.17,SSE,164,0.0,0.0,86,0.00,,---,0.16,VWS V14.01,2013-11-04 04:58:00,
2013-11-03 23:00:00,40.5,36.9,30.17,South,190,2.0,5.0,87,0.00,,---,0.16,VWS V14.01,2013-11-04 05:00:00,
2013-11-03 23:01:00,40.5,36.9,30.17,South,176,1.0,2.0,87,0.00,,---,0.16,VWS V14.01,2013-11-04 05:01:00,
2013-11-03 23:02:00,40.5,36.9,30.17,South,176,0.0,1.0,87,0.00,,---,0.16,VWS V14.01,2013-11-04 05:02:00,
2013-11-03 23:03:00,40.5,36.9,30.17,South,176,0.0,0.0,87,0.00,,---,0.16,VWS V14.01,2013-11-04 05:03:00,
2013-11-03 23:06:00,40.3,36.8,30.17,South,186,1.0,2.0,87,0.00,,---,0.16,VWS V14.01,2013-11-04 05:06:00,
2013-11-03 23:11:00,40.3,36.8,30.17,SSE,167,1.0,1.0,87,0.00,,---,0.16,VWS V14.01,2013-11-04 05:11:00,
2013-11-03 23:12:00,40.2,36.7,30.17,SSE,167,0.0,2.0,87,0.00,,---,0.16,VWS V14.01,2013-11-04 05:12:00,
2013-11-03 23:13:00,40.2,36.7,30.17,SSE,167,0.0,1.0,87,0.00,,---,0.16,VWS V14.01,2013-11-04 05:13:00,
2013-11-03 23:14:00,40.2,36.7,30.19,South,174,0.0,0.0,87,0.00,,---,0.16,VWS V14.01,2013-11-04 05:14:00,
2013-11-03 23:16:00,40.2,36.7,30.19,South,171,1.0,2.0,87,0.00,,---,0.16,VWS V14.01,2013-11-04 05:16:00,
2013-11-03 23:17:00,40.2,36.7,30.19,South,173,1.0,1.0,87,0.00,,---,0.16,VWS V14.01,2013-11-04 05:17:00,
2013-11-03 23:18:00,40.1,36.5,30.19,South,173,0.0,1.0,87,0.00,,---,0.16,VWS V14.01,2013-11-04 05:18:00,
2013-11-03 23:21:00,40.1,36.5,30.19,South,172,0.0,0.0,87,0.00,,---,0.16,VWS V14.01,2013-11-04 05:21:00,
2013-11-03 23:22:00,40.1,36.5,30.19,South,170,2.0,2.0,87,0.00,,---,0.16,VWS V14.01,2013-11-04 05:22:00,
2013-11-03 23:23:00,40.1,36.5,30.19,SSE,152,0.0,2.0,87,0.00,,---,0.16,VWS V14.01,2013-11-04 05:23:00,
2013-11-03 23:25:00,39.9,36.6,30.19,SSW,201,1.0,3.0,88,0.00,,---,0.16,VWS V14.01,2013-11-04 05:25:00,
2013-11-03 23:26:00,39.9,36.6,30.19,South,182,0.0,1.0,88,0.00,,---,0.16,VWS V14.01,2013-11-04 05:26:00,
2013-11-03 23:28:00,39.9,36.6,30.19,SSW,193,1.0,1.0,88,0.00,,---,0.16,VWS V14.01,2013-11-04 05:28:00,
2013-11-03 23:29:00,39.9,36.6,30.19,SSE,150,0.0,3.0,88,0.00,,---,0.16,VWS V14.01,2013-11-04 05:29:00,
2013-11-03 23:30:00,39.9,36.6,30.19,SSE,151,0.0,0.0,88,0.00,,---,0.16,VWS V14.01,2013-11-04 05:30:00,
2013-11-03 23:31:00,39.9,36.6,30.19,SSE,151,0.0,0.0,88,0.00,,---,0.16,VWS V14.01,2013-11-04 05:31:00,
2013-11-03 23:32:00,39.9,36.6,30.19,SE,132,0.0,1.0,88,0.00,,---,0.16,VWS V14.01,2013-11-04 05:32:00,
2013-11-03 23:34:00,39.9,36.6,30.19,SE,132,0.0,0.0,88,0.00,,---,0.16,VWS V14.01,2013-11-04 05:34:00,
2013-11-03 23:35:00,39.9,36.6,30.19,SSE,162,1.0,4.0,88,0.00,,---,0.16,VWS V14.01,2013-11-04 05:35:00,
2013-11-03 23:36:00,39.9,36.6,30.19,South,187,2.0,4.0,88,0.00,,---,0.16,VWS V14.01,2013-11-04 05:36:00,
2013-11-03 23:37:00,39.9,36.6,30.19,South,187,0.0,2.0,88,0.00,,---,0.16,VWS V14.01,2013-11-04 05:37:00,
2013-11-03 23:38:00,39.9,36.6,30.19,SE,132,1.0,2.0,88,0.00,,---,0.16,VWS V14.01,2013-11-04 05:38:00,
2013-11-03 23:41:00,39.9,36.6,30.19,SSE,168,2.0,2.0,88,0.00,,---,0.16,VWS V14.01,2013-11-04 05:41:00,
2013-11-03 23:43:00,39.9,36.6,30.18,SE,139,0.0,0.0,88,0.00,,---,0.16,VWS V14.01,2013-11-04 05:43:00,
2013-11-03 23:44:00,39.9,36.6,30.18,SE,139,0.0,0.0,88,0.00,,---,0.16,VWS V14.01,2013-11-04 05:44:00,
2013-11-03 23:45:00,39.9,36.6,30.18,SE,144,1.0,2.0,88,0.00,,---,0.16,VWS V14.01,2013-11-04 05:45:00,
2013-11-03 23:47:00,39.9,36.6,30.18,SE,144,0.0,0.0,88,0.00,,---,0.16,VWS V14.01,2013-11-04 05:47:00,
2013-11-03 23:48:00,39.9,36.6,30.18,SSE,147,0.0,1.0,88,0.00,,---,0.16,VWS V14.01,2013-11-04 05:48:00,
2013-11-03 23:53:00,39.9,36.6,30.18,SSE,160,0.0,1.0,88,0.00,,---,0.16,VWS V14.01,2013-11-04 05:53:00,
2013-11-03 23:54:00,39.9,36.6,30.18,SSE,160,0.0,0.0,88,0.00,,---,0.16,VWS V14.01,2013-11-04 05:54:00,
2013-11-03 23:55:00,39.9,36.6,30.18,SSE,148,0.0,1.0,88,0.00,,---,0.16,VWS V14.01,2013-11-04 05:55:00,
2013-11-03 23:59:00,39.9,36.6,30.18,SSE,153,2.0,3.0,88,0.00,,---,0.16,VWS V14.01,2013-11-04 05:59:00,